GFSMW_925_temp_003.txt.gz
Temp
13 13 12 13 14 15 16 17 17 17 16 16 16 17 16 15 15 15 15 14 13 13 12 12 11 11 11 11 11 10 9 9 7 9 10 10 9 8 8 8 8 7 7
15 13 13 14 15 15 17 17 17 16 16 16 16 16 16 15 14 14 13 12 12 11 11 11 11 10 10 9 9 9 9 8 6 8 9 11 11 9 8 7 7 6 6
15 15 14 14 14 15 17 16 16 16 16 16 16 16 15 14 13 12 11 11 11 11 11 11 10 10 10 9 8 7 7 8 6 5 7 9 9 7 7 6 6 5 5
16 15 14 14 14 16 16 16 15 15 15 15 15 14 13 12 11 11 11 11 11 11 11 10 10 9 8 7 6 6 5 6 6 5 5 4 5 6 6 6 5 4 4
17 16 15 15 14 15 15 15 15 14 13 13 13 13 12 12 12 11 11 10 10 10 10 10 9 8 7 6 5 5 5 4 5 4 4 4 4 4 4 5 5 4 4
16 16 15 14 13 14 14 14 14 12 12 12 11 11 10 9 9 9 9 9 10 10 10 9 8 7 6 5 5 5 4 4 3 3 3 3 3 3 3 3 3 3 3
15 15 15 15 12 12 12 11 11 10 10 10 10 10 10 9 9 9 8 8 8 8 8 8 7 5 5 5 4 4 4 3 3 3 3 2 2 2 2 2 3 2 2
15 15 13 12 11 10 10 10 9 9 10 10 10 10 10 9 9 8 7 7 6 6 7 6 5 4 4 4 3 3 3 3 3 2 1 1 2 1 1 1 1 2 2
14 14 12 11 10 10 9 10 11 10 10 10 9 9 9 8 8 7 7 6 6 6 6 5 4 4 4 3 3 3 3 2 2 1 1 1 1 0 -0 -0 -0 -0 0
13 12 11 10 9 9 8 9 9 10 9 9 9 9 8 8 8 7 6 6 6 5 4 4 4 5 4 3 3 3 2 3 2 1 1 0 -0 -0 -1 -1 -1 -1 -1
13 11 10 9 8 8 8 10 10 9 9 9 9 8 8 7 7 6 5 5 5 4 4 4 4 4 3 3 3 3 3 3 1 1 -0 -0 -0 -0 -1 -1 -1 -2 -2
12 11 9 9 8 8 8 10 9 9 9 8 8 7 7 6 5 5 4 4 3 3 3 3 3 2 3 3 4 3 3 2 1 0 -0 -0 -1 -1 -2 -2 -2 -2 -2
11 10 9 9 9 8 10 10 10 9 8 7 7 7 6 5 4 4 3 3 2 2 1 2 2 2 2 3 3 2 1 1 -0 -1 -1 -2 -2 -2 -2 -3 -3 -4 -4
10 10 10 9 9 9 10 10 9 8 8 7 7 6 5 4 4 3 3 2 2 1 2 2 2 2 2 3 2 1 -0 -1 -1 -2 -2 -3 -3 -4 -4 -4 -4 -5 -5
10 10 9 9 9 8 9 9 8 8 7 7 6 5 5 4 4 3 3 2 2 2 2 2 2 2 2 1 0 -1 -1 -2 -2 -3 -3 -4 -5 -6 -5 -5 -5 -5 -6
11 10 9 9 8 8 8 9 8 7 7 6 5 5 4 4 4 3 2 2 2 2 1 1 2 1 0 -1 -1 -1 -3 -4 -4 -5 -5 -6 -6 -6 -7 -7 -7 -7 -6
11 10 9 9 9 8 9 8 8 7 7 6 5 5 4 4 3 3 1 1 1 1 1 1 0 -1 -1 -1 -2 -2 -4 -5 -5 -6 -6 -6 -7 -7 -7 -6 -6 -6 -6
11 10 10 9 8 8 9 8 8 7 6 5 5 5 5 4 3 3 1 1 1 0 0 0 0 -0 -2 -2 -3 -3 -5 -6 -6 -7 -7 -7 -7 -7 -8 -7 -6 -6 -6
10 10 10 9 9 8 8 8 7 7 5 5 5 5 4 4 3 2 1 1 1 1 -0 -1 -2 -2 -3 -3 -4 -5 -6 -7 -7 -7 -7 -8 -8 -8 -7 -6 -7 -6 -6
9 9 9 9 8 8 8 7 6 5 5 5 4 4 4 3 2 2 2 2 1 0 -0 -2 -2 -2 -3 -4 -5 -6 -7 -7 -7 -7 -7 -8 -9 -8 -7 -7 -7 -7 -7
9 9 8 7 8 8 7 6 5 5 4 4 4 3 3 2 2 2 2 1 0 -1 -2 -2 -2 -3 -4 -4 -5 -7 -7 -7 -7 -7 -7 -8 -9 -8 -8 -8 -8 -8 -8
6 7 6 7 7 6 6 5 4 4 3 3 2 1 1 1 1 0 1 1 -0 -2 -3 -3 -3 -4 -4 -5 -5 -7 -8 -8 -8 -8 -8 -9 -9 -9 -9 -9 -9 -9 -9
6 6 6 6 5 5 4 3 4 3 2 1 0 -0 -0 -0 -0 -1 0 -0 -2 -3 -3 -3 -4 -4 -5 -5 -6 -6 -7 -8 -8 -8 -9 -9 -10 -10 -10 -10 -11 -10 -10
6 5 6 5 4 4 4 3 2 1 1 -1 -1 -1 -1 -1 -1 -1 -0 -1 -2 -2 -2 -3 -3 -4 -5 -6 -6 -7 -7 -8 -8 -9 -9 -9 -10 -10 -10 -10 -10 -11 -11
5 5 4 3 3 3 2 2 1 0 -2 -2 -1 -1 -2 -2 -1 -1 -0 -0 -1 -1 -2 -3 -4 -4 -5 -5 -5 -6 -7 -7 -8 -9 -9 -9 -9 -9 -9 -10 -10 -11 -11
3 3 3 3 2 2 1 1 -0 -1 -1 -2 -1 -0 -1 -2 -2 -2 -2 -1 -1 -2 -2 -3 -3 -3 -4 -5 -5 -6 -7 -7 -8 -8 -8 -9 -10 -10 -10 -10 -10 -10 -11

GFSMW_925_temp_006.txt.gz
Temp
20 19 19 19 20 19 18 18 17 17 18 18 18 17 17 16 15 14 12 12 12 12 12 13 13 12 13 12 11 12 12 12 11 11 13 13 13 13 12 11 11 10 9
21 19 18 18 19 18 18 18 18 18 18 18 17 17 17 15 14 13 12 12 12 12 13 12 12 12 12 12 11 10 11 12 10 9 10 13 13 13 12 10 10 9 9
21 20 19 19 19 18 18 18 18 18 17 16 16 15 15 15 15 14 14 12 12 12 12 12 11 11 11 11 10 10 9 10 10 9 8 10 11 10 10 10 9 9 8
22 21 20 19 19 18 18 18 17 16 14 15 15 15 16 16 13 13 13 12 11 11 11 11 11 10 10 10 10 9 8 8 9 8 8 8 7 9 8 8 8 7 7
21 21 20 20 19 17 17 16 15 14 14 14 14 15 14 13 13 12 12 12 12 11 11 11 10 10 10 9 8 7 7 7 7 7 7 7 7 6 7 7 7 7 7
21 21 20 19 18 16 15 15 14 14 13 13 12 12 12 12 12 11 11 11 11 11 11 10 9 9 9 8 7 6 6 6 6 6 5 6 6 6 6 6 6 6 6
21 21 19 19 17 15 14 14 14 13 12 12 12 11 11 11 11 10 10 9 10 9 9 8 8 8 8 6 5 5 5 5 5 5 5 5 5 4 4 5 5 5 5
21 20 20 19 17 15 14 14 14 13 12 11 11 11 10 10 10 9 8 8 8 8 7 7 7 7 6 5 4 5 5 5 5 4 4 4 4 4 4 4 4 4 4
21 20 19 17 16 14 13 13 13 12 11 11 10 10 9 8 8 8 8 8 7 7 7 6 6 6 5 4 5 5 5 5 4 4 4 4 4 3 3 3 3 3 3
21 19 17 15 15 14 13 12 13 12 10 10 10 9 8 8 8 8 7 7 6 6 6 6 6 5 5 5 5 5 5 4 4 4 4 3 3 3 3 3 2 2 2
20 18 16 15 14 13 12 12 12 10 10 10 9 9 8 8 7 7 6 6 5 5 5 6 5 5 5 5 4 5 4 4 4 4 3 3 2 2 2 2 2 2 2
20 18 16 14 13 13 12 12 11 11 10 9 9 8 8 7 7 6 6 5 5 5 4 4 4 5 4 4 4 4 4 4 4 3 3 2 2 2 1 1 1 1 1
18 17 15 14 13 13 12 11 11 11 10 9 9 9 8 7 6 6 5 5 4 4 4 4 4 4 4 4 4 4 4 3 3 2 2 1 1 1 0 0 -0 -1 -2
17 16 15 14 13 13 12 12 10 10 10 9 9 8 7 7 6 5 5 4 4 4 4 4 4 3 3 3 3 3 3 2 2 1 1 0 -0 -1 -2 -2 -2 -2 -3
16 16 15 15 14 13 12 11 11 10 9 9 9 8 7 6 6 5 5 4 4 4 4 3 3 3 3 2 2 2 1 1 1 0 -1 -1 -3 -5 -5 -5 -4 -4 -4
16 16 15 15 14 13 12 11 10 10 9 9 8 7 7 6 5 5 4 4 4 4 4 4 3 3 2 -0 -0 0 0 0 -0 -1 -2 -2 -3 -4 -6 -6 -6 -6 -5
16 16 16 15 14 12 12 11 10 9 8 8 7 7 6 5 5 5 5 4 4 4 4 4 3 2 1 -1 -1 -1 -1 -1 -1 -2 -3 -3 -3 -4 -4 -5 -5 -5 -6
17 17 15 14 12 12 11 11 10 9 8 8 7 7 6 6 6 5 5 4 4 4 4 3 3 2 -0 -2 -2 -2 -2 -2 -2 -3 -4 -4 -4 -4 -6 -6 -5 -4 -4
17 16 15 14 13 12 11 10 9 9 8 7 7 7 6 6 6 5 5 4 4 4 4 3 2 1 -0 -2 -3 -3 -3 -3 -4 -4 -4 -5 -5 -6 -8 -6 -6 -5 -4
16 15 14 13 12 11 10 9 9 8 8 7 6 6 5 5 5 5 4 4 4 3 3 2 0 -1 -1 -3 -4 -4 -3 -4 -4 -4 -4 -5 -7 -8 -8 -7 -7 -6 -6
15 14 12 12 11 10 9 9 8 8 7 5 5 5 5 4 4 4 4 4 3 3 1 -0 -1 -2 -2 -3 -4 -5 -5 -5 -5 -5 -4 -5 -7 -8 -8 -8 -7 -8 -8
13 12 11 10 8 8 8 8 8 7 5 5 4 4 4 3 3 3 3 3 2 2 0 -2 -2 -1 -3 -4 -4 -5 -6 -6 -6 -6 -5 -6 -8 -8 -9 -9 -9 -9 -9
12 10 8 7 7 6 6 7 7 5 4 4 4 3 3 2 2 2 3 3 2 2 1 0 -0 0 -1 -3 -4 -5 -6 -7 -7 -7 -7 -8 -9 -8 -7 -8 -9 -9 -8
9 8 6 6 5 4 4 4 4 3 3 3 2 2 2 0 1 2 2 2 2 1 1 1 0 0 -1 -2 -3 -4 -4 -5 -6 -6 -6 -7 -8 -7 -7 -7 -7 -7 -8
5 5 4 4 5 4 4 3 2 2 2 2 2 2 1 0 -0 -0 2 2 1 1 1 1 -0 -1 -2 -2 -3 -4 -4 -5 -5 -7 -6 -5 -6 -6 -6 -6 -6 -7 -8
3 3 4 3 3 3 3 2 1 1 0 1 1 2 1 1 -0 -0 -0 0 -0 -1 -1 -1 -2 -3 -3 -3 -4 -4 -5 -6 -7 -7 -5 -5 -5 -6 -6 -6 -6 -7 -8

GFSMW_925_temp_009.txt.gz
Temp
26 24 25 24 24 22 21 20 20 19 20 20 20 19 19 18 17 16 15 15 14 14 14 15 15 14 14 14 13 13 13 13 13 13 12 12 12 14 14 13 13 12 12
25 24 23 23 23 22 21 20 20 20 20 20 20 20 19 18 17 16 14 14 14 14 14 14 13 13 13 13 13 13 12 12 12 12 12 12 12 12 11 11 11 11 11
25 24 23 22 22 21 21 21 20 20 20 19 18 18 17 17 18 17 16 15 13 13 13 13 13 12 12 12 12 12 11 11 11 11 11 11 10 10 10 10 10 10 10
25 24 23 22 21 21 21 21 20 19 17 18 18 18 18 18 16 15 15 14 14 13 13 13 12 12 11 11 11 12 10 9 10 10 10 9 9 9 9 9 9 9 9
25 24 23 22 22 21 20 20 19 18 17 17 17 17 16 16 15 14 13 13 13 12 12 12 11 11 11 11 10 10 9 9 8 8 8 8 8 8 8 8 8 8 8
25 24 23 22 20 20 19 18 18 17 16 15 15 14 14 14 14 13 13 12 12 11 11 10 10 10 10 10 10 9 8 7 6 7 7 7 7 7 7 7 7 7 7
24 24 23 22 20 18 17 17 17 16 15 14 14 13 13 12 13 12 11 11 11 10 10 9 9 9 10 9 8 7 5 5 6 6 6 6 6 6 6 6 6 7 6
24 24 23 22 20 18 17 17 17 16 14 14 13 12 12 12 12 11 10 10 10 9 9 9 8 9 8 7 6 5 5 5 5 6 5 5 5 5 5 5 5 6 5
24 23 22 21 20 18 17 17 17 15 14 13 12 11 11 11 10 10 9 9 9 8 8 8 8 7 7 6 5 6 6 6 6 5 5 5 5 5 5 5 4 4 4
24 23 22 21 20 18 17 16 16 15 14 12 11 11 11 10 10 9 9 8 8 8 7 7 8 7 7 6 6 6 6 5 6 5 5 4 4 4 4 4 4 4 4
24 23 22 20 19 17 16 16 15 14 13 12 12 11 11 10 10 9 8 8 7 7 7 7 7 7 7 6 6 6 5 6 5 5 4 4 4 3 3 3 3 3 3
25 24 21 19 18 17 16 15 15 14 13 12 11 11 10 10 10 9 8 7 7 7 6 6 6 6 6 6 6 5 5 5 5 4 4 3 3 3 3 3 3 2 2
25 24 21 19 18 16 16 15 14 14 13 11 11 11 11 10 9 8 8 7 7 6 6 6 6 6 5 5 5 5 5 4 3 3 3 2 2 2 2 1 1 0 0
24 23 21 19 17 16 15 15 14 13 12 12 12 12 11 10 9 8 7 7 6 6 6 6 6 5 5 5 5 5 4 3 3 2 2 2 1 1 -1 -2 -2 -1 -2
23 22 20 19 17 16 15 14 14 12 12 12 12 11 10 9 8 8 7 6 6 6 6 6 5 4 4 4 3 2 3 3 2 2 2 1 -0 -2 -4 -4 -4 -4 -3
22 21 20 19 17 16 15 15 13 12 12 11 11 10 10 9 8 7 7 6 6 6 6 6 5 4 4 3 2 1 1 2 2 1 1 -0 -1 -1 -3 -4 -5 -5 -5
21 21 20 18 18 17 15 14 13 12 11 11 11 10 9 8 8 7 7 7 6 6 6 6 5 4 4 1 0 -1 -1 1 1 0 -0 -1 -1 -2 -2 -3 -4 -4 -3
21 21 20 18 18 17 15 14 13 12 11 10 10 9 9 8 8 7 7 7 7 6 6 5 5 4 2 1 -0 -1 -1 -0 -0 -1 -1 -2 -2 -4 -5 -6 -5 -4 -3
22 21 19 18 17 16 15 13 13 12 11 9 9 9 8 8 8 7 7 7 6 6 6 5 5 4 1 1 -1 -2 -1 -1 -2 -2 -2 -3 -3 -4 -6 -7 -6 -5 -4
21 20 19 18 17 15 14 13 12 10 10 10 9 8 8 7 7 7 7 6 6 6 5 5 4 3 2 -0 -1 -2 -2 -2 -2 -2 -2 -3 -5 -6 -7 -7 -7 -6 -5
20 19 18 17 16 15 13 12 11 10 10 8 7 7 7 7 6 6 6 5 5 5 4 3 2 1 -0 -1 -2 -3 -4 -3 -3 -3 -3 -3 -5 -7 -7 -8 -7 -7 -8
19 17 16 15 14 12 11 9 8 8 7 6 6 6 6 5 5 4 5 5 5 5 4 2 1 1 -0 -2 -3 -3 -4 -5 -5 -5 -4 -5 -6 -7 -8 -7 -6 -7 -8
16 15 13 10 9 8 7 7 6 5 6 5 5 5 5 4 3 3 4 4 5 4 3 2 1 1 1 -2 -3 -3 -4 -5 -6 -5 -5 -6 -6 -7 -6 -5 -6 -7 -6
14 12 9 8 5 4 3 3 5 4 3 3 4 3 3 3 2 2 3 4 4 3 2 2 1 2 2 1 -1 -3 -4 -5 -5 -4 -5 -5 -5 -5 -4 -5 -4 -5 -6
8 7 5 4 4 5 5 3 2 3 2 1 2 2 2 3 3 2 2 2 3 3 2 2 1 1 -1 -0 -1 -2 -3 -3 -4 -5 -5 -4 -4 -4 -4 -4 -4 -5 -5
4 3 3 3 4 4 4 3 2 1 1 1 1 2 2 2 3 2 1 1 1 1 1 1 0 -1 -1 -2 -3 -3 -3 -4 -5 -5 -4 -4 -4 -4 -4 -4 -4 -5 -5

GFSMW_925_temp_012.txt.gz
Temp
27 26 26 25 23 22 21 20 19 18 19 19 19 18 18 18 16 15 15 15 15 15 14 14 14 14 13 13 13 13 12 12 12 12 11 12 11 11 12 10 10 10 11
27 26 26 25 23 22 21 20 20 19 20 21 20 20 18 17 17 15 15 14 14 14 14 13 13 13 12 12 12 12 12 11 11 10 10 8 10 11 9 10 10 10 9
26 25 25 24 24 22 21 21 20 20 21 20 18 18 18 17 17 16 15 14 14 14 13 13 13 12 12 12 11 11 11 10 10 10 10 7 6 8 8 8 9 9 9
26 25 24 24 22 21 21 21 21 20 19 19 19 18 18 16 16 15 14 14 13 13 12 12 12 11 11 11 11 11 10 10 9 9 8 8 7 5 6 8 8 8 7
26 24 24 21 21 21 21 21 20 19 18 18 17 17 16 16 15 14 13 13 12 12 12 11 10 10 10 10 10 10 9 8 7 6 7 7 7 7 6 4 6 6 6
25 25 22 21 21 21 21 19 19 18 17 16 16 15 15 14 13 13 12 12 12 11 11 10 9 9 9 10 9 8 7 6 6 5 6 6 6 6 5 4 5 5 6
25 24 22 22 21 20 19 18 18 17 16 14 14 13 13 13 12 12 11 11 11 10 10 9 9 8 9 8 8 7 6 6 5 5 5 6 5 5 5 5 4 4 5
24 24 24 22 20 19 18 18 17 16 15 14 14 13 13 13 12 11 10 10 10 9 9 9 8 8 8 8 7 6 6 5 5 5 5 5 4 5 5 5 4 2 3
24 24 23 22 20 19 18 18 17 16 14 14 13 12 12 12 11 10 10 10 9 9 8 8 8 8 7 7 6 6 6 6 5 5 4 5 5 4 4 4 4 4 1
24 23 23 22 20 19 18 18 17 16 14 13 12 12 11 11 10 10 9 9 8 8 8 7 7 7 7 7 6 6 6 6 5 5 5 4 3 3 3 3 3 3 3
24 23 23 22 20 19 18 17 17 16 14 13 12 12 11 10 10 10 9 8 8 7 7 7 7 7 7 7 6 6 6 6 5 5 4 3 3 3 3 3 3 3 2
24 24 23 22 21 19 18 17 17 16 14 13 12 11 11 11 10 10 9 8 7 7 7 6 6 6 6 6 5 5 5 5 3 2 3 2 2 2 2 2 1 0 -0
24 24 23 22 20 19 18 17 16 15 14 13 12 11 11 10 10 10 9 8 7 7 6 6 6 6 6 5 5 5 5 4 3 3 2 2 2 1 1 -0 -1 -2 -2
25 24 23 21 20 19 17 16 16 15 14 13 12 12 11 11 10 9 8 8 7 6 6 6 6 6 5 5 5 5 4 3 3 3 2 2 1 0 -1 -2 -3 -3 -3
25 24 23 21 20 18 17 16 15 14 14 13 13 13 11 10 9 9 8 7 7 6 6 6 6 6 5 4 4 3 3 2 2 2 2 1 1 -0 -1 -2 -3 -4 -4
25 25 23 21 20 19 17 16 15 14 13 12 12 12 11 10 9 8 7 7 7 7 6 6 6 6 5 4 3 3 2 1 1 1 1 0 -0 -1 -2 -3 -3 -4 -4
23 23 23 21 20 19 17 16 15 14 13 12 12 11 10 9 8 7 7 7 7 7 7 6 6 6 5 4 2 2 1 0 0 0 -0 -1 -1 -2 -2 -3 -4 -5 -5
22 22 21 21 20 19 18 16 15 13 12 12 11 9 8 8 8 8 8 8 8 7 7 6 6 5 4 3 2 1 0 -0 -0 -1 -1 -1 -2 -3 -4 -5 -5 -6 -5
22 22 22 21 20 19 18 16 15 13 12 11 8 7 7 8 8 8 7 7 7 7 7 6 6 5 3 2 1 0 -1 -1 -1 -2 -2 -2 -2 -3 -4 -5 -7 -7 -6
22 22 21 20 19 18 17 15 14 13 11 9 8 7 5 7 7 5 6 6 6 6 6 6 5 4 2 1 -0 -1 -1 -2 -2 -2 -2 -2 -3 -4 -5 -7 -7 -7 -7
20 20 20 18 17 17 15 13 11 10 8 7 5 5 5 5 5 5 5 5 5 5 5 4 3 2 1 1 -0 -1 -2 -3 -3 -4 -3 -3 -5 -5 -5 -7 -7 -7 -7
19 18 13 11 10 11 13 10 8 6 4 4 3 5 4 4 4 4 3 4 4 4 4 3 2 1 1 0 -0 -1 -2 -3 -4 -4 -5 -4 -5 -5 -6 -6 -6 -6 -6
15 11 9 7 7 5 6 4 4 4 3 4 4 3 3 3 2 2 2 2 3 4 4 3 1 1 1 0 -0 -1 -2 -3 -4 -4 -5 -5 -5 -5 -5 -5 -5 -5 -6
12 10 7 5 4 3 3 2 3 3 3 2 1 2 2 2 2 2 2 2 2 3 3 3 2 1 1 1 -0 -2 -3 -4 -4 -4 -5 -5 -5 -4 -4 -4 -4 -4 -5
6 5 4 4 4 3 3 2 3 2 2 1 1 1 2 2 2 3 3 2 2 1 1 2 2 1 1 1 -0 -1 -3 -3 -4 -5 -5 -5 -4 -4 -4 -4 -4 -4 -5
4 3 3 3 3 3 3 3 3 2 1 0 1 1 2 2 2 2 2 2 2 1 1 1 1 1 1 -0 -1 -1 -2 -3 -3 -4 -5 -5 -4 -4 -4 -4 -4 -4 -4

GFSMW_925_temp_015.txt.gz
Temp
22 24 22 20 20 20 19 19 19 19 18 17 17 17 16 16 16 16 15 15 14 14 14 14 14 13 13 12 12 12 11 11 11 11 10 10 11 10 9 9 9 9 9
22 23 21 20 20 20 19 19 19 19 18 18 18 17 17 17 16 15 14 14 14 14 13 13 12 12 12 12 11 11 11 11 10 10 9 6 8 8 8 8 8 8 7
22 21 21 19 19 20 19 19 19 19 19 18 18 17 17 16 15 14 14 13 13 13 13 12 12 12 11 11 10 10 10 10 9 9 8 4 4 5 7 7 7 7 7
22 21 20 19 19 19 20 19 20 19 18 19 18 17 16 15 14 14 13 13 13 13 12 12 11 11 10 10 10 10 9 9 7 8 7 6 6 3 2 6 6 6 6
22 20 20 20 20 20 20 20 19 19 19 18 18 17 16 14 14 14 14 13 13 12 11 11 10 10 9 9 9 8 8 7 7 6 6 6 6 6 4 2 4 5 5
19 20 21 21 20 20 20 19 19 18 18 17 17 16 15 14 14 13 13 12 11 11 10 10 9 8 8 8 8 7 7 6 6 5 5 5 5 5 4 2 2 3 4
20 18 18 18 19 19 18 18 18 17 17 16 16 15 15 15 14 13 12 11 11 10 10 9 8 8 8 8 7 7 6 6 5 5 5 5 5 5 5 4 3 2 3
19 18 19 20 18 18 18 18 17 15 15 15 15 14 14 14 13 12 11 10 10 9 9 8 8 8 7 7 7 7 6 6 5 5 5 5 4 4 4 3 3 -1 1
19 19 19 18 17 18 18 17 16 15 14 14 14 13 13 12 12 11 10 10 9 9 8 8 7 7 7 7 7 7 6 6 5 5 5 4 3 3 3 3 3 2 -1
18 17 18 17 17 18 18 17 16 15 14 14 13 13 12 12 11 10 10 9 8 8 7 7 7 7 7 7 6 6 6 6 5 4 3 3 2 3 3 2 2 2 1
19 17 18 17 18 18 18 18 16 15 14 13 13 12 11 11 10 10 9 9 8 7 7 7 6 6 6 6 6 6 5 5 4 3 3 2 2 2 2 2 1 0 -1
19 18 18 17 17 17 17 17 16 15 14 13 12 11 11 10 10 9 9 8 8 7 7 6 6 6 6 6 5 5 5 4 4 3 2 2 2 2 1 1 0 -1 -2
19 19 18 17 17 16 16 17 16 15 14 13 12 11 11 10 10 10 9 8 8 7 7 6 6 6 6 6 5 5 4 4 3 3 2 2 2 1 0 -0 -1 -2 -3
20 19 19 17 17 16 16 16 16 15 14 13 12 12 11 11 10 10 9 8 7 7 6 6 6 6 6 5 5 4 4 3 3 2 2 2 1 0 -0 -1 -2 -3 -3
22 19 17 15 17 16 15 15 16 15 14 13 12 12 11 11 10 9 8 8 7 7 7 6 6 6 6 5 4 4 4 3 3 2 1 1 0 -0 -1 -2 -3 -4 -4
20 19 18 16 16 15 15 15 15 15 14 13 12 12 11 10 9 8 7 6 6 6 7 6 6 6 6 5 4 3 3 2 2 1 0 0 -0 -1 -2 -3 -3 -4 -5
19 19 18 16 16 16 16 16 15 14 14 13 12 10 10 9 7 6 5 6 6 7 7 7 6 6 6 5 4 3 2 2 1 -0 -0 -1 -1 -2 -2 -3 -3 -4 -4
18 18 19 19 18 18 17 16 15 14 13 12 9 8 8 7 6 5 6 7 7 6 6 7 6 6 5 4 3 2 2 1 -0 -1 -1 -2 -2 -2 -3 -3 -4 -5 -5
17 18 20 20 20 18 17 16 13 12 11 8 8 7 7 6 4 5 6 6 4 5 6 6 6 5 4 3 2 1 0 -0 -1 -1 -2 -2 -2 -3 -3 -4 -5 -6 -6
17 13 13 14 16 17 16 13 10 8 7 5 5 5 5 4 5 5 4 4 4 4 4 4 5 5 4 3 2 1 -0 -1 -1 -2 -3 -3 -3 -4 -4 -5 -6 -7 -6
10 10 8 7 9 11 10 7 6 5 5 5 4 3 3 3 4 3 4 3 3 3 3 4 3 4 3 2 1 0 -1 -1 -2 -3 -3 -4 -4 -4 -5 -6 -6 -6 -6
8 6 5 4 5 5 5 4 3 3 4 3 3 3 3 3 3 3 3 3 2 2 3 3 2 2 2 1 1 0 -0 -1 -2 -2 -3 -4 -5 -5 -5 -5 -5 -5 -6
5 5 4 3 4 4 4 3 3 4 4 4 3 3 3 2 2 2 2 2 2 2 2 2 2 2 2 1 0 0 0 -1 -2 -3 -3 -4 -5 -5 -5 -5 -5 -5 -5
5 4 4 3 3 4 5 5 4 5 4 3 2 2 1 1 1 1 2 2 2 2 1 1 1 2 2 1 0 -0 -0 -1 -2 -3 -3 -4 -4 -5 -5 -4 -4 -4 -4
4 4 4 3 3 3 3 3 3 2 2 2 2 1 1 1 1 2 2 2 2 2 2 1 1 1 1 1 1 0 -1 -1 -2 -3 -4 -5 -5 -4 -4 -4 -4 -4 -4
3 3 3 3 3 3 3 3 3 3 2 2 1 1 1 1 2 2 2 2 2 2 1 1 1 1 1 0 0 -1 -2 -2 -3 -4 -5 -5 -5 -5 -5 -4 -4 -4 -4

GFSMW_925_temp_018.txt.gz
Temp
20 19 19 18 19 19 19 18 18 18 18 17 16 16 16 15 15 15 15 15 15 15 14 14 14 13 13 12 12 11 11 11 10 10 10 10 9 8 8 8 7 7 7
19 19 18 18 18 19 18 18 18 18 18 18 17 17 16 15 16 15 14 14 14 14 14 14 13 12 12 11 11 10 10 10 9 9 7 4 7 8 7 7 7 6 6
20 19 18 17 18 17 18 18 18 18 18 17 17 16 16 15 14 14 14 14 14 14 14 13 12 11 11 10 10 9 9 9 7 8 8 4 3 4 6 6 6 6 6
21 19 18 17 17 17 18 19 19 18 18 17 17 16 15 14 14 14 13 13 13 13 12 12 11 10 10 9 9 9 9 8 7 6 6 6 6 2 2 5 5 5 5
21 19 18 18 17 18 18 19 18 18 18 17 17 17 16 15 14 13 13 13 12 12 11 11 10 9 9 8 8 8 7 7 6 6 6 6 5 5 2 0 3 4 4
19 17 18 18 17 18 18 17 18 18 18 18 17 17 16 14 13 13 13 12 11 11 10 10 9 8 8 8 7 7 7 6 6 5 5 5 5 4 3 0 1 2 4
17 16 17 17 17 17 17 17 18 17 17 17 17 16 15 14 14 13 13 11 10 9 9 9 8 8 7 7 7 7 6 6 5 5 5 5 4 4 4 3 2 1 2
18 18 17 17 16 16 17 17 18 17 16 16 16 15 14 14 13 13 11 10 10 9 8 8 8 7 7 7 7 7 6 6 5 5 5 4 4 4 3 3 2 -1 0
16 17 16 17 16 16 16 16 16 16 15 15 14 14 13 13 13 11 11 10 9 9 8 7 7 7 7 7 6 6 6 6 5 5 5 4 3 3 2 3 2 1 -3
16 16 16 16 16 16 16 16 16 15 14 14 13 13 13 12 12 11 10 9 9 8 8 7 7 7 6 6 6 6 6 5 5 4 4 3 3 3 2 2 2 1 -1
17 16 16 16 16 16 15 16 15 15 14 13 13 13 12 12 11 11 10 9 8 8 8 7 7 6 6 6 6 5 5 5 4 3 3 3 2 2 2 1 1 0 -1
17 17 16 15 15 15 15 16 16 15 15 14 13 13 12 11 10 10 9 9 8 8 7 7 6 6 6 6 5 5 5 4 4 3 3 2 2 2 1 1 0 -1 -2
16 15 15 15 15 15 15 14 14 14 14 13 13 12 11 11 10 10 9 9 8 8 7 7 6 6 6 6 5 5 5 4 3 3 2 2 2 1 1 0 -1 -2 -3
17 16 15 16 16 16 15 14 12 12 12 12 12 12 11 11 10 10 9 9 8 7 7 7 6 6 6 6 5 5 4 4 3 2 2 2 1 0 -0 -1 -2 -3 -3
19 18 16 14 16 15 15 14 12 13 13 12 12 12 11 11 10 9 8 8 7 7 7 7 6 6 6 6 5 5 4 3 3 2 1 1 0 -0 -1 -2 -3 -3 -4
18 19 18 14 15 15 14 14 13 13 12 12 12 11 11 10 9 7 7 6 6 6 6 7 6 6 6 6 5 5 4 3 2 2 1 0 -0 -1 -1 -2 -3 -4 -5
16 16 17 14 14 14 14 14 14 13 12 11 11 10 9 8 7 6 5 5 5 5 6 5 6 6 6 6 5 4 3 2 1 1 -0 -1 -1 -2 -2 -3 -3 -3 -4
14 14 14 16 16 16 15 15 13 11 10 10 9 7 7 6 5 4 4 4 4 5 4 5 5 6 6 5 5 4 2 2 1 -0 -1 -1 -2 -2 -3 -3 -3 -4 -4
12 11 12 12 15 15 13 12 11 10 10 7 7 7 6 5 4 4 4 3 4 4 4 4 4 5 5 5 4 3 2 1 0 -1 -1 -2 -2 -3 -3 -4 -4 -4 -4
8 8 9 10 11 10 11 9 6 5 4 5 5 4 4 4 4 3 3 3 3 3 3 3 3 3 4 4 3 2 2 1 -0 -1 -2 -2 -3 -3 -4 -4 -5 -6 -5
6 5 5 5 5 6 6 4 4 3 3 4 4 4 4 4 4 3 3 3 3 2 2 2 2 3 3 3 3 2 1 1 -1 -1 -2 -2 -3 -4 -4 -5 -5 -5 -5
5 4 4 3 4 4 4 3 3 3 4 4 4 4 4 3 2 3 3 3 2 2 2 2 3 3 2 2 2 1 1 0 -1 -1 -1 -2 -3 -4 -5 -5 -5 -5 -5
4 4 4 4 4 5 6 5 4 4 5 5 4 2 2 2 2 2 2 2 2 2 2 2 2 2 2 2 1 1 1 -0 -1 -1 -2 -2 -3 -4 -4 -4 -5 -5 -5
4 4 3 3 3 3 3 3 3 3 3 3 3 3 2 2 2 1 1 1 2 2 1 2 1 1 1 1 1 0 0 -0 -1 -1 -2 -3 -3 -4 -4 -5 -4 -4 -4
3 3 3 3 3 3 3 3 3 3 3 2 2 2 2 1 1 1 1 1 2 1 2 2 2 1 1 1 1 1 0 -0 -0 -1 -3 -3 -4 -4 -4 -4 -4 -4 -5
3 3 3 3 3 3 3 3 3 3 3 2 2 2 2 2 2 1 1 2 2 2 2 2 1 1 1 0 0 0 0 0 -1 -3 -4 -4 -4 -4 -4 -5 -5 -4 -4

GFSMW_925_temp_021.txt.gz
Temp
18 17 17 17 17 17 18 18 18 17 17 16 16 16 16 15 15 15 15 15 15 15 15 15 13 13 12 12 11 11 11 10 10 10 9 8 8 7 7 7 7 7 6
18 18 17 17 17 18 18 18 18 17 17 17 17 17 16 15 15 15 14 15 15 14 14 14 13 13 12 12 11 10 10 9 9 9 7 4 6 7 7 6 7 6 6
18 18 17 17 17 16 17 18 18 17 17 17 17 16 15 14 14 14 14 14 14 14 13 13 12 12 11 11 10 9 9 9 7 8 8 3 3 3 6 6 6 6 6
18 18 17 16 16 16 17 18 18 17 17 17 17 16 15 13 13 13 13 13 13 12 12 12 11 11 11 10 9 9 9 8 7 6 7 7 6 2 2 5 5 5 5
18 18 17 17 17 16 16 17 17 17 17 17 17 16 14 14 14 13 13 12 12 11 11 11 10 10 10 9 8 8 7 7 7 6 6 5 5 4 2 0 3 4 4
16 17 18 17 17 16 16 16 16 16 17 17 17 16 15 14 14 13 13 12 11 11 10 9 9 8 8 8 8 7 7 7 6 6 5 5 4 4 3 -0 1 1 3
17 15 16 16 16 16 16 16 16 16 17 16 16 16 15 14 14 13 12 11 10 9 9 9 9 8 7 7 7 7 6 6 6 5 5 5 4 4 3 2 1 0 2
17 16 16 16 16 16 15 16 16 16 16 16 16 16 15 14 13 13 12 11 10 9 9 8 7 7 7 6 6 6 5 5 5 5 5 5 4 3 3 2 2 -1 -1
15 16 16 16 16 16 15 16 16 15 16 15 14 14 14 14 13 13 11 11 10 9 8 7 7 7 7 6 6 6 5 5 5 5 5 4 4 3 3 2 2 0 -3
15 15 16 16 16 16 15 15 16 16 17 16 15 14 13 13 13 12 11 11 10 8 8 7 7 7 6 6 6 6 6 5 5 5 5 4 3 3 2 2 2 1 -0
15 15 16 16 15 15 15 15 15 15 15 14 14 14 13 13 12 11 11 9 9 8 8 7 7 7 6 6 6 5 5 5 4 4 4 3 3 2 2 2 1 0 -1
15 16 16 14 14 14 14 14 14 14 14 14 13 13 12 12 11 11 10 9 9 8 8 8 7 7 6 6 6 5 5 5 5 4 3 3 2 2 1 1 0 -1 -1
15 14 13 13 14 14 13 13 13 12 11 11 11 11 11 11 11 10 10 9 9 8 8 7 7 6 6 6 6 5 5 5 5 4 3 3 2 2 1 1 -0 -1 -2
15 14 13 13 14 14 13 13 12 11 10 9 10 11 11 11 11 10 10 9 9 8 8 7 7 6 6 6 6 5 5 5 4 3 3 2 2 1 1 -0 -1 -2 -3
15 14 13 12 14 14 14 13 12 11 11 10 10 10 11 11 10 10 9 9 8 7 7 6 5 6 6 6 6 6 5 4 4 2 2 1 1 0 -0 -1 -1 -2 -3
15 17 15 14 14 14 14 14 12 11 11 11 10 10 10 9 9 9 8 7 6 6 5 5 5 5 6 6 6 6 5 4 3 2 1 1 0 -0 -1 -1 -2 -3 -4
14 13 13 14 15 15 15 14 13 12 12 11 9 9 9 8 8 7 5 5 5 5 5 4 4 5 5 6 6 5 5 3 3 2 1 1 -0 -1 -1 -2 -3 -4 -4
11 10 9 11 13 14 13 12 11 10 9 8 8 7 7 6 5 5 5 5 4 4 3 3 4 4 5 5 5 5 4 3 2 2 1 0 -1 -1 -2 -3 -4 -4 -4
8 7 8 8 10 11 11 11 9 8 7 6 5 4 4 4 4 4 4 4 4 3 3 3 3 4 4 4 4 4 3 2 2 1 0 -0 -1 -2 -3 -3 -4 -4 -5
5 5 6 6 7 7 8 7 4 4 3 3 3 4 4 3 3 3 4 3 3 3 3 3 3 3 3 3 3 3 3 2 1 1 -0 -1 -1 -2 -3 -4 -4 -5 -5
4 5 4 3 4 5 5 3 3 3 3 4 4 4 4 3 3 4 3 2 2 3 3 3 2 2 2 3 3 3 2 2 1 0 -0 -1 -1 -2 -3 -4 -5 -5 -5
4 4 3 3 3 3 4 3 3 4 4 4 4 4 3 3 2 2 2 3 2 2 2 2 2 2 2 3 3 2 2 2 1 0 0 -0 -2 -2 -3 -4 -5 -5 -5
3 3 3 3 4 4 4 3 3 3 3 3 3 3 2 2 2 2 2 2 2 1 1 1 1 2 2 2 2 1 1 1 0 -0 -0 -1 -2 -3 -3 -4 -5 -5 -5
3 3 3 3 2 3 3 3 3 3 3 3 2 2 2 2 2 1 1 1 1 1 1 1 1 1 1 1 1 1 1 0 -0 -1 -2 -2 -3 -3 -3 -4 -4 -4 -5
3 3 3 2 2 3 2 2 2 2 2 2 2 2 1 1 1 1 1 1 1 1 1 1 1 0 0 1 1 1 0 0 -0 0 -1 -4 -4 -4 -4 -4 -4 -4 -4
3 3 2 2 2 1 1 1 1 1 1 0 0 0 -0 -0 -0 -0 0 1 1 1 1 1 1 1 1 1 1 1 0 -0 -0 -3 -4 -5 -5 -5 -5 -4 -4 -4 -4

GFSMW_925_temp_024.txt.gz
Temp
17 16 16 17 17 16 17 17 17 17 17 16 15 15 16 15 15 15 15 15 15 15 14 14 13 13 12 11 11 11 10 9 9 8 7 7 7 7 7 7 7 7 6
16 16 16 16 17 17 17 17 17 17 17 16 16 15 16 15 15 15 14 14 14 14 13 13 12 12 11 11 10 10 9 8 8 8 7 4 5 6 6 6 6 6 6
16 16 16 16 16 17 17 17 18 17 16 16 16 16 15 14 14 14 14 13 13 13 13 12 12 11 11 10 10 9 9 8 7 8 7 4 4 3 5 5 5 6 5
17 16 16 16 16 16 17 17 17 17 16 16 16 16 15 13 14 14 14 13 12 12 12 12 11 11 10 10 9 9 9 8 7 7 7 6 6 3 2 5 5 5 5
17 16 16 17 16 17 16 17 17 16 16 16 16 16 15 15 14 13 13 12 12 11 11 11 10 10 10 10 9 8 8 7 7 6 6 6 5 4 2 1 3 4 5
16 16 17 17 16 16 17 16 16 16 16 16 16 16 16 14 14 12 12 11 11 11 10 10 10 10 9 8 8 7 7 7 6 6 6 5 5 4 2 -1 1 1 3
15 14 15 15 15 16 16 16 16 15 15 15 15 15 15 15 15 13 12 11 10 10 10 9 9 9 8 7 7 7 6 6 6 6 5 5 5 4 3 2 1 0 1
16 16 16 16 16 15 15 15 15 15 15 15 15 14 14 15 14 13 13 12 11 10 10 10 10 8 8 8 7 6 6 6 5 5 5 5 4 4 3 3 2 -1 -1
14 15 15 16 16 15 15 16 15 15 15 15 14 14 14 14 14 13 12 12 11 10 10 9 9 8 8 7 7 6 6 5 5 5 5 4 4 4 3 3 2 1 -2
13 14 14 15 15 15 15 15 15 16 17 15 14 14 14 13 12 12 11 11 10 9 9 9 8 7 7 7 6 6 5 5 5 5 5 4 4 3 3 2 2 1 0
13 13 13 15 15 15 16 16 15 15 15 14 14 13 12 11 11 11 11 11 10 9 9 9 8 7 6 6 6 6 5 5 5 5 4 4 3 3 2 2 2 1 -0
13 13 13 14 15 15 14 14 14 14 14 15 13 11 11 10 10 11 11 11 10 9 9 8 7 7 6 6 6 5 5 5 5 5 4 4 3 3 2 2 1 1 -0
14 13 13 12 13 12 13 13 14 14 14 13 12 11 10 11 11 11 11 10 9 9 8 7 7 6 6 6 5 5 5 5 5 5 4 4 3 2 2 1 1 -0 -1
14 13 12 12 12 13 13 13 13 12 12 11 11 10 10 10 11 10 9 9 9 8 8 7 7 6 5 5 6 6 6 6 5 5 4 3 2 2 2 1 0 -1 -2
15 14 13 12 13 13 13 13 13 12 11 10 9 8 9 10 9 9 9 9 8 8 7 6 6 5 4 5 5 5 5 5 5 4 3 3 2 2 1 0 -0 -1 -2
12 12 12 13 13 13 13 13 13 12 11 10 10 9 9 8 8 8 8 8 7 6 5 5 4 4 4 5 5 5 4 4 4 4 3 2 2 1 0 -0 -1 -2 -3
10 10 9 9 11 11 12 12 11 10 9 8 8 8 8 7 7 8 7 6 5 5 4 4 4 4 4 4 5 5 5 5 4 3 3 2 1 1 -0 -1 -2 -3 -3
8 7 6 7 9 11 11 11 10 9 8 8 7 7 7 6 6 5 5 4 4 4 3 3 3 3 4 4 4 4 4 4 4 3 2 2 1 1 -0 -1 -2 -3 -4
5 5 5 5 6 7 8 8 7 6 6 5 5 4 5 4 4 4 3 3 3 3 3 3 1 1 3 3 3 3 3 3 3 2 2 1 1 0 -1 -2 -3 -3 -4
4 4 4 5 5 5 6 5 4 4 3 3 3 3 4 3 3 3 3 3 3 3 2 1 1 2 3 3 2 2 2 2 2 1 1 1 0 -0 -1 -2 -3 -4 -4
3 3 3 3 3 4 4 3 2 2 3 3 4 3 3 4 4 4 3 3 2 2 2 2 2 2 2 2 2 2 2 2 1 1 1 1 0 -1 -1 -2 -3 -3 -4
3 3 2 2 3 3 3 2 3 3 4 4 4 4 3 3 3 2 2 2 1 1 1 1 1 2 2 2 2 2 1 2 0 1 1 1 0 -1 -1 -2 -3 -4 -5
2 2 2 2 3 3 3 2 2 3 3 3 2 2 2 2 2 1 1 1 1 1 1 0 0 1 2 2 2 1 2 1 -0 0 1 1 -0 -1 -2 -2 -3 -4 -5
2 2 2 1 1 2 2 2 2 2 2 1 1 1 1 1 1 1 0 0 0 0 0 -0 -1 -0 -0 0 1 1 1 1 0 -0 -0 -0 -0 -1 -3 -3 -4 -4 -4
2 2 1 0 0 1 0 1 1 1 1 0 -0 -1 -1 -1 -1 -1 -1 -1 -1 -1 -2 -2 -2 -2 -2 -1 -0 0 1 1 1 1 -1 -2 -3 -4 -4 -4 -5 -4 -5
1 1 0 -0 -1 -1 -1 -1 -1 -1 -1 -1 -2 -3 -3 -3 -3 -4 -4 -3 -3 -3 -3 -3 -3 -2 -3 -2 -2 -2 -2 -1 -0 -2 -3 -4 -5 -5 -5 -5 -5 -6 -5

GFSMW_925_temp_027.txt.gz
Temp
19 17 16 16 16 15 15 15 15 16 15 15 15 15 15 15 15 15 15 15 15 14 15 14 14 13 13 13 12 11 10 8 8 8 8 7 6 6 6 6 6 6 6
19 17 16 16 16 16 15 15 15 16 16 16 16 15 15 15 14 14 14 14 14 14 14 14 13 13 13 12 11 10 9 8 8 9 9 10 8 6 6 5 5 5 5
19 18 17 16 16 16 16 16 16 17 17 17 16 15 14 14 13 13 14 13 13 14 13 13 13 12 12 11 10 10 9 9 7 8 10 10 11 8 6 5 5 5 5
19 20 18 17 16 16 16 16 15 16 16 17 16 15 14 14 13 14 13 13 13 13 13 12 12 12 11 11 10 9 9 8 8 7 7 7 7 9 9 6 5 5 5
20 20 19 19 17 16 16 16 15 16 16 16 15 15 15 14 14 14 13 13 12 12 12 12 12 11 11 10 9 9 9 9 8 8 7 6 5 5 7 8 7 5 5
20 20 19 19 18 16 16 16 15 15 14 16 16 15 15 15 13 13 12 12 12 11 11 11 11 11 10 9 9 9 8 8 7 6 6 7 7 7 6 6 6 5 5
21 20 19 18 18 16 15 15 15 15 14 15 15 15 15 15 14 14 13 12 12 11 11 10 10 10 9 8 8 8 7 7 7 6 6 5 5 5 5 5 6 5 5
21 20 20 19 18 16 16 15 15 15 14 14 15 15 14 14 13 13 12 12 11 10 10 10 10 9 9 8 8 7 7 7 6 5 5 5 5 4 4 4 5 5 5
19 19 20 19 18 17 16 16 15 15 14 14 15 15 14 14 13 12 12 11 11 10 10 9 9 9 7 8 7 6 7 6 6 5 5 4 4 3 3 3 3 4 4
18 17 18 18 17 17 16 15 15 16 15 14 14 14 13 13 11 11 11 10 9 10 9 9 8 7 7 7 7 7 7 6 5 5 5 4 4 3 3 3 2 2 3
19 18 17 17 17 16 16 15 15 15 15 13 14 14 13 12 11 10 9 9 10 9 8 9 7 7 7 6 7 7 6 6 5 5 5 4 4 3 3 2 2 2 2
19 18 17 16 15 15 15 15 14 14 13 14 14 12 12 10 10 9 10 10 10 8 9 8 8 7 7 7 6 6 6 5 4 5 4 4 3 3 3 2 2 2 1
18 17 16 16 15 14 13 13 13 14 14 13 12 10 9 8 8 8 8 8 8 8 8 8 7 7 6 6 6 5 5 5 5 5 4 4 3 3 3 2 2 1 0
17 16 16 15 14 14 14 13 12 13 13 12 10 9 9 8 7 8 7 7 7 8 8 7 6 6 6 5 4 3 4 4 5 5 4 4 3 3 3 2 1 1 -0
16 16 16 15 14 14 13 13 13 12 12 10 9 9 8 8 7 7 7 7 8 8 8 7 6 5 4 4 4 3 3 4 4 4 5 4 4 4 3 1 1 0 -0
14 14 13 13 13 13 13 13 12 12 11 9 9 8 7 7 7 7 7 7 7 7 6 5 5 4 3 4 3 3 3 4 4 3 3 4 4 3 2 2 1 0 -0
12 11 11 10 9 10 10 11 10 10 9 8 8 7 7 7 7 7 7 6 6 5 4 4 3 2 3 4 2 3 3 3 3 3 3 2 2 3 1 1 0 -1 -1
10 9 9 8 7 7 7 8 8 7 7 6 6 6 6 6 5 5 4 4 4 4 3 2 2 3 3 2 1 2 3 2 2 2 2 2 1 1 1 0 -1 -1 -2
7 6 6 6 6 6 5 6 5 5 5 5 4 4 4 4 4 3 3 3 3 2 2 2 3 2 2 2 2 2 2 1 2 2 2 1 1 1 1 -1 -2 -2 -2
6 5 5 5 5 4 5 5 4 4 4 4 4 4 3 3 3 3 3 3 3 3 3 3 2 2 1 2 2 2 1 1 1 2 2 2 1 1 1 -1 -1 -2 -2
4 4 4 4 4 4 4 4 4 3 3 3 4 4 4 3 3 3 3 3 2 2 1 1 2 1 1 2 2 2 1 1 0 -0 0 1 2 1 0 -0 -1 -1 -2
4 4 4 3 3 4 4 4 3 3 3 3 2 2 2 2 2 2 2 1 1 1 0 0 0 0 1 2 2 1 1 1 0 0 -0 0 1 1 0 -1 -1 -1 -2
4 4 3 2 2 2 3 2 1 2 2 1 1 1 1 1 1 0 0 0 0 -0 -0 -0 -0 -0 -1 -1 -1 0 0 0 0 1 1 1 0 0 -0 -0 -1 -2 -4
3 3 2 2 1 0 0 0 1 1 1 -0 -1 -1 -1 -1 -1 -1 -1 -1 -1 -2 -2 -2 -2 -2 -2 -2 -2 -2 -2 -2 -2 -2 -1 0 0 -0 -0 -2 -2 -3 -4
2 2 1 0 -1 -1 -2 -1 -0 0 -1 -2 -2 -2 -3 -2 -2 -3 -3 -3 -3 -4 -4 -3 -4 -4 -4 -5 -6 -5 -5 -4 -4 -3 -3 -3 -3 -3 -3 -3 -3 -4 -4
1 0 -1 -2 -2 -3 -3 -3 -2 -1 -2 -3 -3 -4 -4 -4 -4 -4 -4 -6 -6 -6 -6 -6 -7 -7 -7 -8 -8 -7 -7 -6 -5 -5 -4 -3 -2 -3 -3 -3 -4 -4 -4

GFSMW_925_temp_030.txt.gz
Temp
22 20 20 19 19 19 18 18 17 17 17 17 17 17 17 17 16 16 16 15 16 15 15 15 13 14 15 15 13 13 13 12 12 12 12 11 10 10 10 10 10 9 8
24 22 21 20 19 19 18 18 18 18 18 18 18 18 18 18 16 15 15 15 15 15 14 14 14 14 14 13 13 12 13 13 11 13 13 16 13 10 9 9 9 8 8
24 23 22 21 20 19 19 19 19 18 18 18 18 17 17 15 15 14 14 14 14 14 14 13 14 13 13 13 12 12 12 13 11 10 12 15 16 13 11 9 9 8 8
26 25 23 22 21 20 20 19 19 19 18 18 19 17 18 18 16 14 14 15 13 14 14 13 13 12 13 13 12 12 12 11 11 10 10 10 11 13 14 10 9 8 7
26 26 25 24 22 21 20 19 19 19 19 18 18 17 18 19 18 15 15 14 12 12 13 12 12 12 12 12 11 10 9 10 11 11 11 10 10 10 10 12 12 10 9
27 26 25 24 24 22 21 20 19 19 19 18 17 18 18 18 16 15 13 12 10 11 11 11 11 11 11 10 10 9 9 10 9 11 10 10 11 11 10 11 10 10 9
27 26 26 25 24 23 21 20 20 20 19 18 17 17 17 17 15 14 12 11 11 11 11 10 10 10 10 9 9 9 7 8 9 9 10 9 9 9 9 9 9 9 9
27 27 27 26 25 23 22 20 20 20 19 18 17 16 16 15 14 13 12 12 11 10 9 9 8 9 9 9 9 7 7 8 8 8 8 9 8 8 7 8 8 9 8
27 27 27 26 24 23 22 20 20 19 20 18 17 16 15 14 13 12 12 12 10 10 9 10 8 8 8 9 8 7 8 7 7 8 7 7 8 7 7 7 7 7 7
25 25 25 25 24 23 22 20 20 20 20 19 17 16 16 14 12 11 11 10 10 9 8 7 8 7 7 7 6 7 7 7 7 7 7 7 7 7 6 6 6 6 6
26 24 23 23 23 22 21 20 19 19 19 19 18 17 16 13 11 11 10 9 10 9 8 8 7 6 7 6 7 7 8 6 6 7 7 7 7 6 6 6 6 6 6
25 24 23 22 21 21 21 20 20 20 20 19 18 17 13 12 12 11 11 10 10 7 7 7 6 7 7 7 6 7 6 5 5 6 7 6 6 6 6 6 6 5 5
25 24 23 22 21 21 20 19 18 19 19 17 15 15 14 12 11 10 9 8 7 7 6 6 6 7 6 6 6 5 5 4 4 6 7 6 6 6 6 6 6 6 5
22 24 23 22 21 20 19 18 17 17 16 15 15 14 13 12 12 10 9 8 7 5 5 6 6 6 6 6 4 4 4 4 5 5 6 6 6 6 6 6 6 5 5
21 21 22 21 20 18 17 17 16 14 14 14 14 14 12 12 11 10 10 9 8 6 5 6 6 5 5 4 4 3 3 4 5 5 5 5 5 5 5 6 6 5 5
19 19 19 19 18 18 18 16 15 13 13 13 13 12 11 10 10 9 7 5 5 5 6 6 5 4 3 3 3 3 3 4 4 5 5 5 5 4 3 3 4 4 4
18 17 17 16 16 15 15 14 13 12 12 12 11 10 10 9 8 7 6 5 5 5 5 4 4 3 4 4 2 2 2 2 3 4 5 5 5 5 4 3 2 2 2
16 16 15 14 14 13 12 12 12 11 11 10 9 9 9 8 7 6 5 5 5 5 4 3 4 3 3 3 2 2 2 2 3 4 4 4 4 5 5 3 3 1 1
15 13 13 12 12 11 11 11 10 10 9 9 8 8 8 7 7 6 5 5 5 4 3 3 3 3 3 2 2 2 2 3 3 3 4 4 4 4 3 3 3 3 2
12 12 11 11 10 10 10 10 9 8 8 7 7 7 7 6 6 6 5 5 4 4 3 3 2 2 2 2 2 1 1 2 2 3 3 3 2 2 2 2 2 2 2
10 10 10 10 9 9 9 9 8 7 7 6 6 6 6 5 4 4 3 3 3 3 3 3 3 3 3 2 1 0 -0 1 1 2 2 2 2 2 1 1 0 1 1
10 9 9 9 9 9 8 8 7 6 6 5 4 4 3 3 3 4 4 4 4 3 3 3 3 3 2 2 0 -1 -2 -2 -2 -1 0 1 1 1 0 -0 -0 -0 -1
10 9 8 7 7 7 6 6 5 5 5 4 4 3 3 3 3 3 3 3 3 3 2 2 2 2 1 0 -1 -2 -3 -3 -3 -3 -3 -2 -2 -2 -2 -2 -2 -1 -2
9 8 7 6 5 5 5 4 4 4 4 3 3 2 2 2 2 2 2 2 1 0 0 0 -0 -1 -2 -2 -4 -5 -5 -5 -5 -4 -4 -4 -3 -3 -2 -2 -1 -2 -2
8 7 6 5 4 3 3 3 3 3 2 2 1 1 0 1 1 0 -1 -2 -2 -4 -4 -3 -4 -4 -5 -5 -8 -8 -7 -7 -7 -7 -6 -4 -3 -2 -2 -1 -2 -2 -2
6 5 4 3 2 2 1 1 1 1 1 1 0 -2 -1 -1 -1 -1 -1 -4 -5 -6 -7 -7 -8 -7 -8 -9 -9 -9 -8 -9 -8 -6 -4 -3 -3 -3 -2 -1 -1 -2 -2

GFSMW_925_temp_033.txt.gz
Temp
24 22 22 20 20 19 18 18 18 18 17 17 18 19 19 19 19 17 18 18 18 17 17 17 16 16 17 17 16 15 15 15 14 15 15 15 13 12 12 12 12 12 10
25 23 22 22 21 20 19 19 19 19 19 19 20 20 20 20 20 17 18 18 17 17 16 17 16 16 17 16 15 15 15 15 14 15 15 16 15 13 12 12 12 11 10
26 25 23 22 21 21 21 20 20 20 20 20 20 20 20 20 20 18 17 17 17 17 17 16 16 16 16 15 14 14 15 15 14 13 14 16 17 16 13 11 11 11 10
27 26 25 23 22 22 21 21 21 21 21 20 21 20 20 20 20 19 18 17 16 16 17 16 16 16 15 15 14 14 14 14 14 14 12 13 13 14 15 13 11 10 9
28 28 26 25 23 22 22 21 21 21 21 20 20 21 20 20 20 19 17 16 17 16 16 16 15 15 14 14 14 14 13 12 11 12 11 13 12 12 12 13 14 11 11
28 29 28 26 25 24 23 22 22 22 22 21 20 20 20 20 21 20 18 17 16 15 15 15 14 13 13 13 13 12 10 10 10 10 11 13 13 13 13 13 12 12 12
29 29 29 28 27 25 24 23 22 22 22 21 20 20 20 20 20 20 17 17 15 13 12 12 11 11 11 11 10 10 10 9 9 9 11 12 11 11 11 11 11 11 11
30 29 29 29 28 27 25 23 23 22 22 21 21 20 19 19 19 18 17 15 13 12 12 13 9 9 10 9 8 9 9 8 7 9 10 10 10 10 10 10 10 10 10
30 30 30 29 28 28 26 24 23 23 23 22 21 20 18 18 18 17 16 13 13 12 12 10 9 10 9 7 8 7 7 7 8 9 9 9 9 9 9 9 9 9 8
29 29 29 29 29 28 27 25 24 23 23 22 21 19 19 18 17 16 13 12 11 10 10 9 8 8 7 8 6 6 7 8 8 8 8 8 9 9 9 8 8 8 8
29 27 27 27 28 27 26 25 24 23 23 22 21 19 18 18 16 14 12 11 10 10 11 9 8 7 7 6 6 6 7 8 8 7 6 7 8 8 8 8 8 8 8
28 28 27 26 26 25 25 25 24 23 23 22 21 19 17 16 15 12 11 11 11 11 10 10 8 6 6 6 6 6 7 8 6 6 5 6 8 8 8 7 7 7 7
28 27 26 25 25 24 24 24 22 22 22 22 21 20 15 14 13 12 12 11 10 10 10 8 6 5 6 5 6 6 7 5 5 5 5 7 8 8 7 7 7 7 7
28 28 27 25 24 23 22 22 21 21 21 20 19 18 16 14 13 12 11 9 9 8 7 5 5 6 5 6 6 6 4 4 5 4 6 6 7 7 7 7 7 6 6
26 26 26 25 23 22 21 21 19 18 18 18 18 16 15 14 13 12 11 9 8 7 6 5 5 6 6 6 5 4 4 5 3 4 6 6 6 6 6 6 6 6 6
25 24 24 23 22 21 20 18 17 16 16 16 16 14 14 13 13 12 10 9 8 7 6 5 6 6 5 5 4 4 4 3 3 3 4 5 5 5 5 6 6 5 5
23 22 22 21 20 19 18 17 16 16 15 15 14 13 12 11 10 10 9 8 7 6 5 5 5 5 4 4 4 3 3 3 2 2 2 3 5 6 6 6 6 6 5
21 20 19 18 18 17 16 16 15 14 14 13 12 12 11 10 10 9 8 6 5 5 5 5 5 6 5 4 4 4 3 2 2 2 4 5 5 5 5 5 5 5 5
20 19 18 17 16 16 15 15 14 13 13 12 11 11 10 10 9 8 7 7 7 7 6 6 5 5 4 3 3 2 2 3 3 4 4 4 4 4 4 4 3 4 5
17 17 16 15 15 14 14 14 13 12 11 11 10 10 9 9 8 6 6 5 5 5 5 3 4 3 3 3 3 1 2 2 2 2 3 3 3 3 3 3 2 2 3
16 15 15 15 14 13 13 12 11 11 10 10 9 8 7 6 5 5 4 4 4 4 4 4 5 4 4 4 2 1 -0 -2 -2 -2 -1 -0 0 -0 -1 -1 -1 1 1
15 15 14 13 13 13 12 11 10 9 8 7 7 6 5 5 6 6 6 6 6 5 5 4 4 4 3 2 0 -1 -2 -3 -3 -3 -3 -2 -3 -3 -3 -2 -2 -2 -1
15 14 13 12 12 11 11 10 9 8 7 7 7 6 6 6 6 6 6 6 5 4 4 3 3 3 2 1 -0 -3 -4 -5 -5 -4 -4 -5 -5 -4 -4 -3 -3 -3 -2
14 13 12 11 10 10 10 8 8 7 7 6 6 5 5 5 5 5 4 4 2 2 2 1 1 0 -1 -1 -4 -6 -6 -5 -5 -6 -6 -6 -5 -3 -2 -1 -1 -1 -2
13 12 11 10 9 8 7 7 7 6 6 5 4 4 3 4 3 2 1 0 -3 -3 -2 -2 -3 -4 -4 -5 -8 -8 -8 -7 -8 -8 -7 -5 -3 -4 -3 -3 -2 -2 -1
12 11 9 8 7 6 6 6 5 5 4 4 3 2 2 2 2 2 -1 -3 -3 -4 -5 -6 -7 -7 -7 -9 -10 -9 -9 -9 -8 -7 -5 -5 -5 -6 -6 -5 -5 -4 -3

GFSMW_925_temp_036.txt.gz
Temp
21 20 19 17 15 15 15 15 15 16 16 15 15 17 18 18 18 18 18 18 18 17 17 17 17 17 17 17 17 16 16 16 16 15 15 15 14 13 13 13 12 12 11
23 21 20 19 16 16 16 16 16 16 16 16 16 17 18 18 18 18 18 18 16 18 17 17 17 16 16 17 16 16 15 15 15 14 15 12 13 13 12 12 12 12 11
23 22 21 20 19 17 17 18 17 16 16 17 18 18 19 19 19 19 18 18 17 18 17 17 17 16 16 17 16 15 15 15 14 14 13 11 12 13 12 12 12 12 11
25 23 22 21 20 19 19 19 19 19 18 19 19 20 20 20 20 19 18 18 18 17 17 17 16 16 16 16 15 14 14 15 14 13 13 13 12 11 10 12 12 11 11
26 25 23 23 22 21 20 20 20 20 20 19 20 20 20 20 20 20 19 18 17 17 16 17 17 16 16 15 15 14 14 14 13 12 12 11 11 12 11 9 12 11 10
27 26 25 24 23 22 21 21 21 21 21 21 20 20 20 20 20 20 19 18 18 17 16 16 16 15 15 14 12 10 12 11 11 11 10 9 9 12 11 9 11 11 12
27 27 26 25 24 23 22 21 21 21 21 21 21 20 20 20 20 20 19 17 16 16 15 15 15 15 14 13 11 9 10 10 10 9 9 9 10 12 11 11 10 10 11
27 27 27 26 25 24 23 22 22 21 22 22 21 20 20 20 19 19 19 18 16 16 15 15 15 14 12 11 10 11 10 10 9 8 8 8 10 10 10 10 10 6 9
28 28 28 28 27 25 24 23 23 22 22 22 22 21 20 19 19 16 18 17 15 15 15 14 13 11 10 10 10 10 9 8 7 7 8 9 9 9 9 9 9 9 5
30 29 28 28 28 27 25 24 23 23 23 23 22 21 20 19 18 17 17 15 14 14 13 13 11 9 9 9 10 9 8 7 7 7 8 8 8 8 8 9 9 9 8
28 28 28 28 29 28 28 25 24 24 24 23 22 21 20 19 17 16 16 14 13 12 11 10 10 9 8 8 8 8 7 6 7 7 7 7 7 7 8 8 8 8 8
28 28 27 27 27 27 28 26 25 24 24 24 21 20 20 18 18 16 15 14 13 11 11 10 10 9 7 7 7 7 6 6 6 6 7 6 6 6 7 8 8 8 7
28 27 26 26 26 26 26 26 25 24 24 24 22 21 19 17 15 14 13 12 12 11 10 10 9 8 6 6 7 6 6 5 5 6 6 5 5 6 6 7 7 7 7
28 28 26 25 25 25 24 24 23 23 22 22 20 17 14 14 14 13 12 11 11 10 10 10 9 7 6 6 6 5 5 5 5 6 5 4 5 6 6 7 7 7 6
28 27 26 25 24 23 23 22 21 20 19 19 17 15 14 14 13 12 11 11 10 9 8 7 7 6 6 5 5 5 5 5 6 5 4 4 5 5 5 6 6 5 5
27 26 26 25 23 22 21 19 18 18 18 18 16 15 15 14 13 11 10 9 8 7 6 6 5 5 5 6 6 5 5 5 4 4 3 3 4 4 4 5 5 5 5
25 25 24 23 22 20 19 17 17 17 16 15 14 14 13 12 11 10 9 8 8 7 6 5 5 5 6 5 5 5 4 4 3 3 3 2 2 3 4 5 5 5 5
23 23 21 21 19 18 17 17 16 15 15 14 13 12 11 11 10 9 8 7 6 5 5 5 5 5 5 5 5 4 3 3 3 3 3 3 3 4 4 4 4 3 3
21 21 20 19 18 17 16 16 15 14 14 13 12 11 11 10 9 8 7 6 6 6 6 6 6 6 4 4 4 3 2 2 2 2 3 2 2 1 1 0 -1 -1 0
20 20 18 18 17 16 15 15 14 13 13 12 11 11 10 9 8 7 6 6 6 6 6 5 5 5 4 3 3 2 1 1 0 0 -0 -0 -0 -1 -1 -2 -3 -3 -2
19 18 17 16 16 15 14 14 13 12 11 11 10 10 7 6 6 6 6 5 5 4 4 4 4 5 3 2 1 1 -0 -2 -2 -3 -3 -3 -3 -3 -3 -3 -4 -4 -3
18 17 16 15 15 14 13 12 12 11 10 8 8 7 6 6 5 5 5 6 6 5 5 4 4 3 2 1 -0 -1 -2 -3 -4 -5 -5 -5 -5 -5 -4 -4 -3 -3 -3
17 17 15 14 14 13 13 12 10 9 8 7 7 7 7 7 7 7 7 6 5 4 3 3 3 2 1 -1 -2 -2 -3 -4 -6 -6 -6 -6 -5 -4 -4 -4 -4 -3 -3
17 16 14 14 13 13 12 10 9 8 8 7 7 6 6 6 6 5 5 3 2 2 2 1 0 -0 -2 -3 -4 -5 -6 -7 -7 -8 -7 -6 -6 -4 -5 -5 -5 -5 -5
16 15 13 12 12 11 10 9 8 8 7 6 5 4 5 4 3 2 1 -0 -1 -1 -1 -3 -3 -4 -5 -7 -8 -8 -8 -8 -8 -8 -8 -6 -5 -6 -6 -7 -7 -7 -7
15 13 12 11 10 9 8 8 7 7 6 5 3 3 3 4 3 0 -1 -2 -2 -3 -3 -4 -5 -6 -7 -8 -8 -9 -9 -8 -8 -8 -7 -6 -6 -7 -7 -8 -8 -8 -8

GFSMW_925_temp_039.txt.gz
Temp
16 14 13 13 12 12 11 11 11 12 12 12 13 13 13 15 17 17 17 18 18 18 17 18 17 18 17 17 17 17 17 16 16 15 15 15 14 14 14 13 13 12 11
17 16 15 13 13 13 13 12 12 13 13 13 14 14 15 17 18 18 18 18 18 17 17 17 17 17 17 17 17 16 16 16 15 15 14 10 12 13 13 13 12 12 12
17 17 15 14 14 14 14 14 14 15 15 15 15 16 16 17 17 18 18 18 17 17 17 17 17 17 17 17 16 16 16 15 15 15 14 10 9 11 13 12 12 12 11
19 18 17 15 14 15 15 15 15 15 15 15 15 15 15 16 17 18 18 18 18 18 17 16 17 16 16 16 16 16 15 15 14 13 13 13 12 9 9 12 12 12 12
19 19 18 17 15 15 15 15 15 15 16 16 16 15 16 17 18 18 18 18 18 18 17 16 16 16 16 16 16 15 15 14 12 11 12 12 11 11 9 8 11 11 11
21 20 19 19 17 16 16 16 16 16 16 16 16 17 17 18 19 19 18 19 18 17 17 16 16 16 16 15 15 14 13 13 11 10 10 10 9 9 8 7 9 9 11
22 21 20 20 19 18 17 17 17 17 17 17 17 17 18 19 20 20 19 19 18 18 18 16 16 16 16 15 15 14 12 11 10 10 10 9 9 9 9 8 9 8 10
23 22 21 21 21 19 19 18 18 18 18 18 18 18 18 19 19 20 20 19 19 17 17 16 16 16 15 15 14 13 11 10 10 10 10 9 9 8 9 9 9 5 7
21 23 23 22 22 21 20 19 19 19 20 19 19 19 19 19 19 19 19 19 19 16 15 16 15 15 15 14 13 12 10 10 10 9 8 8 8 8 8 9 9 8 3
22 23 23 23 23 22 21 20 20 20 20 20 20 20 20 19 20 19 19 19 17 16 15 13 14 14 12 12 11 10 9 9 9 8 8 7 7 7 8 8 8 8 8
22 21 20 23 24 24 22 21 20 20 19 20 20 20 20 20 20 19 17 16 15 14 13 13 12 12 11 11 9 9 8 8 8 7 6 6 6 7 7 7 7 7 8
23 23 22 23 24 24 24 22 20 18 21 20 19 20 17 16 15 15 15 15 13 13 13 13 12 11 10 10 8 8 7 8 7 6 6 6 6 6 6 5 6 7 7
22 21 22 23 23 24 23 22 20 19 18 17 18 18 17 18 15 15 14 13 13 13 12 11 11 10 9 8 7 7 7 7 6 5 5 5 5 6 5 5 6 6 6
23 21 20 21 22 23 22 21 21 19 18 18 17 15 16 15 14 13 13 12 11 11 10 10 10 10 9 8 7 6 6 5 5 5 5 5 5 4 4 4 5 5 5
23 21 20 19 19 20 20 19 19 19 18 17 16 14 14 14 13 12 12 11 10 10 10 10 9 8 7 6 6 6 5 5 5 5 5 5 4 4 4 4 4 4 3
23 23 20 19 19 19 18 18 18 16 17 15 14 14 14 13 12 12 11 10 10 9 8 7 7 6 6 5 5 5 5 5 5 5 5 4 4 4 4 4 4 4 4
22 21 20 19 18 17 17 17 17 16 15 14 13 13 12 11 11 10 10 9 8 7 6 6 5 5 5 5 5 5 5 4 4 4 3 3 3 3 1 1 2 2 2
20 18 17 16 16 17 17 16 16 15 14 13 12 11 11 10 9 9 8 7 7 6 6 5 5 5 5 5 5 4 4 4 3 3 2 1 0 0 -0 -0 0 0 0
16 16 17 16 16 16 16 15 14 14 13 12 11 11 10 9 8 8 7 7 6 6 5 5 5 5 5 5 5 4 3 2 1 1 1 0 -0 -1 -1 -2 -2 -3 -2
17 16 16 16 16 15 15 14 13 13 11 11 10 10 9 8 7 6 6 6 6 5 5 5 5 5 3 3 2 2 1 1 1 0 -0 -1 -3 -3 -4 -4 -5 -5 -4
16 16 15 14 15 15 14 13 12 11 11 11 10 9 8 7 7 6 6 6 6 6 5 5 3 3 3 1 1 1 0 -1 -2 -2 -3 -4 -5 -5 -5 -5 -5 -5 -5
15 15 14 14 15 14 13 11 11 11 10 9 8 7 7 6 6 6 6 5 5 4 4 3 1 1 -0 -1 -1 -1 -2 -3 -3 -5 -6 -5 -5 -5 -5 -5 -5 -5 -6
14 14 13 13 13 13 12 10 8 9 8 7 6 6 6 6 6 5 5 4 4 3 3 1 -1 -3 -3 -3 -2 -2 -3 -4 -5 -6 -6 -6 -6 -5 -6 -6 -6 -7 -7
13 13 12 11 11 12 11 9 8 8 7 6 6 6 6 5 4 4 4 3 2 2 2 0 -2 -3 -4 -4 -4 -4 -4 -5 -6 -7 -6 -6 -6 -6 -7 -7 -8 -8 -8
13 12 11 10 10 10 9 9 8 7 7 6 6 5 5 4 2 2 1 1 -0 1 0 -1 -2 -3 -4 -6 -7 -7 -7 -8 -8 -8 -7 -7 -7 -8 -8 -9 -9 -9 -10
12 11 10 8 8 8 8 8 7 7 5 4 4 4 3 2 1 -0 -2 -2 -2 -2 -2 -3 -3 -5 -6 -7 -7 -8 -8 -8 -8 -7 -8 -8 -9 -9 -10 -10 -10 -11 -11

GFSMW_925_temp_045.txt.gz
Temp
12 12 13 11 11 11 11 11 11 11 11 12 14 14 14 15 15 16 16 16 16 17 16 17 17 17 17 17 16 16 16 16 15 14 13 13 13 13 13 13 13 13 13
12 11 11 11 10 10 11 11 11 11 12 13 14 13 14 15 16 17 18 17 17 17 17 17 17 17 17 16 16 16 16 15 14 14 12 9 12 13 13 13 13 13 13
13 12 11 10 10 10 10 11 11 11 12 12 12 13 13 14 15 17 17 16 17 17 17 17 17 17 17 17 17 16 16 15 14 15 15 8 9 10 12 12 12 12 12
14 13 11 10 10 10 11 11 11 11 12 12 12 13 13 14 14 15 16 17 17 17 17 17 17 17 16 17 17 16 16 16 15 14 14 14 14 10 11 12 12 12 12
16 14 12 12 10 10 11 11 11 12 12 12 12 12 12 13 14 15 15 15 16 17 17 17 17 17 16 16 16 16 15 15 15 15 13 12 12 12 10 9 10 11 11
16 16 14 13 11 11 11 11 10 11 11 11 12 12 12 13 13 14 14 15 16 17 17 17 17 17 17 16 16 16 15 15 14 15 15 14 12 10 10 7 8 10 11
16 16 14 13 12 11 11 11 11 11 11 11 12 12 12 13 13 14 14 15 16 16 17 17 17 17 17 15 15 15 14 14 14 14 15 15 14 13 11 10 8 8 9
17 16 15 15 14 12 12 12 12 12 12 12 12 12 12 13 13 14 14 15 15 16 17 17 17 17 16 14 14 13 12 13 13 14 14 14 13 12 11 10 8 6 6
17 16 16 15 15 14 13 12 13 13 13 13 13 13 13 13 13 14 14 14 15 15 16 16 15 15 15 14 13 13 13 12 13 13 13 12 12 10 10 9 8 7 5
18 17 17 16 15 15 14 14 14 14 14 14 13 13 13 14 14 14 14 14 15 15 15 15 14 14 14 13 13 12 12 11 11 12 11 11 10 9 8 8 7 6 5
19 18 18 18 17 16 15 14 14 14 14 14 14 14 14 14 14 14 14 14 14 15 15 14 14 14 13 12 12 11 11 10 10 10 10 8 8 7 7 7 6 5 5
18 19 19 18 18 17 16 15 14 14 15 14 14 14 14 14 14 15 14 14 14 15 13 13 13 14 11 12 11 11 10 10 10 9 8 7 7 7 6 5 5 5 5
18 18 17 17 18 18 17 16 15 15 15 15 15 14 14 14 15 16 14 14 14 13 13 15 13 12 13 11 11 9 10 10 9 8 7 6 6 6 5 5 5 5 4
18 17 18 18 19 19 18 18 17 16 16 15 15 15 14 15 15 14 14 13 13 13 13 15 14 11 11 10 9 9 9 8 8 7 7 7 6 5 5 4 4 3 3
19 18 16 16 16 17 18 19 18 18 17 16 15 15 15 15 14 14 14 13 13 12 12 13 12 11 10 9 9 9 8 7 6 6 6 6 4 4 4 4 4 3 2
19 19 17 17 16 17 17 17 18 19 18 16 15 15 14 14 14 14 13 13 13 12 12 11 10 9 9 10 9 8 7 6 6 5 5 4 3 3 3 2 1 2 0
19 19 17 18 17 17 19 18 18 18 17 16 14 14 14 14 13 12 12 12 10 10 10 9 9 9 9 8 8 7 6 6 5 5 3 3 2 2 2 1 1 1 -0
19 18 18 16 17 17 16 16 15 15 15 13 13 13 12 12 11 11 10 10 10 9 9 9 8 8 7 7 6 6 5 5 4 3 3 2 2 1 2 2 1 -0 -1
20 19 19 17 15 16 14 14 13 12 12 11 11 11 10 9 9 9 9 9 9 8 8 8 7 6 6 5 5 4 4 3 2 2 1 1 0 1 1 -0 -1 -2 -3
16 14 14 14 13 12 13 12 10 10 10 10 10 10 10 10 9 9 8 7 8 7 6 5 5 4 4 4 4 4 3 2 1 0 -1 -2 1 0 -2 -3 -4 -5 -5
13 13 13 12 12 12 12 10 9 9 9 9 9 9 9 10 9 8 7 6 5 4 3 2 2 2 2 2 2 3 3 2 -0 -1 -1 -2 -3 -4 -4 -5 -6 -6 -7
11 12 11 10 11 11 11 9 8 8 8 8 8 8 8 7 7 6 5 4 4 1 -0 -0 -1 -1 -1 -0 0 0 0 -0 -1 -2 -3 -3 -4 -5 -6 -6 -7 -7 -7
11 11 10 9 10 10 10 7 6 8 7 7 6 6 6 6 5 5 3 2 1 -1 -2 -3 -4 -4 -4 -3 -2 -1 -1 -1 -2 -3 -5 -6 -6 -6 -7 -7 -8 -8 -9
9 10 9 8 7 9 9 8 7 7 6 5 4 4 4 3 3 3 2 2 -0 -1 -2 -4 -5 -6 -5 -4 -4 -4 -4 -4 -5 -6 -6 -7 -7 -7 -8 -8 -9 -10 -11
10 9 8 7 5 7 6 6 6 6 4 2 2 2 2 2 1 0 0 0 -0 1 -1 -3 -3 -5 -6 -6 -6 -5 -6 -6 -7 -7 -8 -8 -8 -9 -10 -10 -11 -11 -12
8 6 6 5 4 4 4 5 5 5 3 0 -0 -1 -1 -2 -3 -3 -4 -3 -2 -2 -2 -3 -3 -5 -6 -7 -8 -8 -8 -8 -7 -8 -9 -10 -10 -10 -11 -12 -12 -13 -13

GFSMW_925_temp_048.txt.gz
Temp
12 13 13 11 11 11 11 11 12 11 12 12 12 14 14 15 16 16 15 16 16 16 17 16 16 17 16 16 16 15 15 15 14 13 13 13 13 14 14 14 14 13 13
12 12 13 11 11 11 11 11 12 12 11 12 12 13 14 14 16 15 15 16 16 16 16 17 16 16 15 16 16 16 15 14 14 14 12 10 12 13 13 13 13 13 12
12 12 12 11 11 10 11 11 11 12 12 12 12 13 14 15 15 14 15 15 16 17 16 16 16 16 16 16 16 16 15 15 14 14 15 9 10 11 13 13 13 13 12
13 12 12 12 11 10 11 11 11 11 12 12 13 13 14 14 15 15 15 15 16 17 17 16 16 17 16 16 16 16 15 15 15 13 14 14 14 10 10 11 12 12 12
14 12 11 11 10 10 10 11 11 11 11 12 12 13 13 14 15 14 15 16 16 16 17 16 16 16 16 16 16 16 15 15 15 14 13 12 12 12 11 10 10 11 12
15 14 13 11 10 10 10 10 11 11 11 12 13 13 13 13 13 14 15 16 16 16 17 16 16 17 16 16 16 16 15 15 14 14 14 14 12 11 10 9 9 10 11
15 14 12 11 10 9 10 10 10 10 11 11 11 12 12 13 12 13 13 14 15 16 16 16 16 17 16 16 16 15 14 13 13 13 13 13 13 14 13 11 9 8 10
16 15 13 12 11 10 10 10 10 10 11 11 11 11 12 12 12 13 13 13 14 15 15 15 16 17 16 16 15 14 13 12 12 12 12 12 12 12 13 12 10 6 7
15 15 15 13 12 11 11 11 10 10 11 11 11 11 11 11 11 12 12 13 13 14 14 15 16 17 16 15 14 13 13 11 12 12 11 12 11 11 11 11 11 9 6
15 15 15 15 13 12 12 12 12 12 11 11 11 11 11 11 11 12 12 13 13 14 15 16 16 15 15 14 13 13 14 12 12 11 10 10 10 10 10 9 9 8 7
16 16 15 15 15 14 13 12 12 12 12 12 12 12 12 12 12 13 13 14 15 15 15 15 15 15 14 13 13 12 12 11 10 10 10 9 9 10 8 7 7 6 6
16 16 16 16 15 15 14 13 12 12 13 12 12 12 13 12 12 12 13 17 13 13 14 14 15 15 12 12 12 12 12 11 10 10 9 8 8 8 7 7 6 6 5
16 15 15 15 15 15 15 14 14 13 13 13 13 12 12 13 13 13 14 14 14 14 14 13 14 13 13 12 12 12 11 11 10 8 8 8 7 7 6 6 5 5 5
17 15 15 16 16 16 15 15 15 14 14 13 13 13 13 13 13 13 14 14 14 13 13 12 12 12 12 13 12 12 10 9 8 8 8 8 7 7 6 5 4 4 4
18 16 15 15 15 16 16 16 16 15 14 14 13 13 13 13 13 14 14 13 13 13 12 12 12 12 12 12 11 11 9 8 8 7 7 6 6 6 5 5 4 3 3
19 18 17 15 14 16 16 16 16 16 15 14 14 14 14 13 13 13 13 13 12 12 12 12 12 12 11 11 10 10 9 8 7 6 5 5 4 4 3 3 3 2 2
18 18 17 17 15 15 16 16 16 16 16 15 14 14 14 13 13 13 13 13 12 12 12 12 12 11 10 10 9 8 8 7 6 5 4 3 3 3 2 1 1 1 0
18 17 17 15 18 19 17 17 16 16 16 15 14 14 14 13 13 12 12 12 12 11 11 10 10 9 9 8 7 7 6 6 5 4 3 3 2 1 1 0 0 -1 -1
17 18 19 19 19 18 18 16 14 15 14 13 13 13 12 11 11 11 11 10 10 8 8 8 7 8 7 6 6 6 5 4 3 2 2 1 -0 -1 0 -0 0 -1 -2
15 15 16 17 16 16 16 14 12 12 12 12 11 11 12 11 10 9 8 7 7 6 6 5 5 5 4 4 4 5 4 2 1 -0 -1 -1 -1 -1 -1 1 -1 -3 -5
16 15 13 13 14 13 13 11 10 11 10 10 10 10 10 10 8 7 6 5 5 4 3 2 2 2 2 3 3 3 3 2 0 -1 -2 -3 -3 -3 -2 -2 -4 -5 -6
13 12 11 10 10 11 11 9 7 7 9 9 8 7 7 6 6 5 3 3 3 1 0 0 -1 -1 0 1 1 1 2 0 1 -1 -3 -3 -3 -4 -5 -6 -6 -7 -7
9 9 8 7 9 9 9 6 5 7 7 6 5 5 5 4 3 3 2 1 1 -1 -2 -2 -3 -4 -3 -2 -1 -1 -1 -2 -1 -2 -3 -4 -5 -6 -6 -7 -7 -8 -8
8 8 8 7 6 8 8 6 6 7 6 4 3 3 3 2 2 2 1 -0 -1 -2 -2 -3 -4 -5 -5 -4 -4 -3 -3 -3 -3 -4 -6 -6 -6 -7 -7 -8 -9 -9 -10
7 7 6 5 4 4 5 5 5 7 4 3 2 1 2 2 1 -0 -1 -1 -1 -0 -1 -2 -4 -5 -6 -5 -5 -4 -5 -5 -6 -6 -7 -8 -8 -9 -9 -10 -10 -11 -12
5 4 3 3 2 2 2 3 4 5 3 -0 -1 -1 -1 -1 -2 -3 -4 -3 -2 -1 -2 -3 -3 -5 -6 -7 -7 -7 -7 -7 -7 -8 -8 -9 -10 -10 -11 -11 -12 -12 -13

GFSMW_925_temp_051.txt.gz
Temp
16 14 13 12 12 12 12 12 12 12 12 12 12 12 12 12 12 14 13 15 16 16 16 16 16 16 16 16 15 15 15 14 14 13 12 12 13 13 13 13 13 13 13
14 14 13 12 12 12 12 12 12 12 12 12 12 12 12 13 13 13 15 15 16 16 16 16 16 16 15 15 15 15 13 13 14 14 14 15 14 13 14 13 13 12 13
15 14 13 13 12 12 11 11 12 12 12 12 12 12 12 13 12 15 16 16 16 16 16 16 16 15 16 16 15 15 15 14 13 14 16 15 16 15 13 12 13 13 12
17 15 14 13 13 12 12 12 11 11 12 12 12 12 13 14 14 15 16 16 15 15 16 16 17 16 16 16 15 15 15 14 14 12 14 14 14 16 15 12 12 12 12
17 16 15 14 13 12 12 12 12 12 11 12 12 12 14 15 14 15 16 17 15 16 16 16 16 16 17 16 15 16 15 15 14 13 13 12 11 12 11 13 11 12 11
18 17 15 14 13 12 11 11 12 12 12 12 12 12 13 14 15 15 15 15 15 15 15 15 16 16 16 16 15 15 14 14 14 13 12 13 12 10 10 10 12 11 12
18 18 16 14 13 11 10 10 11 12 12 12 12 12 13 13 14 14 14 14 13 14 15 15 15 15 15 16 16 15 15 14 14 13 12 11 12 12 12 11 11 12 11
19 18 17 15 13 11 10 10 11 12 12 12 12 12 12 13 13 13 14 14 13 13 14 15 15 15 16 16 16 15 15 14 13 12 11 12 12 10 10 10 11 8 9
20 19 17 16 14 12 11 11 11 12 12 12 12 12 12 12 12 13 13 13 14 14 14 15 15 15 15 15 15 16 15 14 14 13 12 12 12 11 10 9 10 11 9
19 19 18 16 15 14 13 11 12 12 12 12 12 12 12 12 12 12 12 13 13 14 15 15 15 15 15 15 15 14 14 13 13 12 11 11 11 10 10 9 9 10 10
21 19 18 17 16 15 14 12 12 12 12 12 12 12 11 11 11 11 13 14 14 14 15 15 14 14 14 15 14 14 14 13 12 12 11 11 10 11 9 8 9 9 9
22 20 19 17 16 15 15 13 13 13 12 12 12 11 11 11 11 11 11 11 12 13 13 12 12 12 13 13 14 14 13 12 12 12 11 11 10 9 8 8 8 8 7
22 20 19 18 17 16 15 14 13 13 13 12 12 11 11 11 11 11 12 12 13 12 12 12 12 13 13 13 13 12 12 11 13 11 10 10 9 8 7 7 7 6 5
21 21 19 18 18 17 16 15 14 13 13 13 12 12 12 12 12 12 12 12 12 13 12 13 13 13 13 12 11 11 11 11 11 10 10 9 8 7 7 6 6 5 4
22 20 20 19 18 17 16 16 16 14 13 13 13 13 13 12 12 12 12 12 12 13 13 13 12 13 12 11 12 11 11 11 10 9 9 8 7 7 7 6 5 4 3
22 21 19 19 18 17 17 17 16 15 14 14 14 14 13 13 12 13 13 13 13 12 12 12 13 12 12 12 12 12 11 10 9 8 7 6 6 6 5 5 4 4 3
21 21 21 19 18 17 17 17 17 16 14 14 14 14 14 13 13 13 13 13 13 13 12 12 12 12 12 12 12 11 10 9 7 7 6 5 4 4 3 3 2 2 1
20 20 21 20 20 19 17 18 17 16 15 15 15 14 14 14 14 13 13 13 13 12 12 12 12 12 11 11 10 9 8 7 6 5 5 5 3 2 2 1 1 -0 -1
19 20 21 20 20 18 19 17 16 15 15 15 15 14 14 14 13 13 12 12 12 12 11 10 10 9 9 8 7 7 6 5 3 3 3 3 1 0 -0 -0 -1 -2 -3
16 17 19 17 17 18 16 15 15 14 15 15 14 13 12 11 12 12 11 10 9 8 7 6 6 6 6 5 5 6 5 3 1 0 -0 -0 -0 -1 -1 -2 -2 -3 -4
15 15 16 16 16 14 14 14 14 14 11 11 11 11 11 11 11 9 8 7 6 4 3 3 2 3 3 3 4 4 3 1 -2 -2 -3 -3 -2 -3 -3 -2 -3 -4 -5
12 13 14 13 10 11 12 12 10 8 10 10 9 9 9 8 7 7 4 3 2 1 -0 -0 -1 -1 -0 0 2 2 2 0 -0 -2 -3 -4 -6 -5 -6 -5 -6 -6 -6
11 9 10 9 9 9 9 7 6 8 7 6 5 5 4 4 3 3 1 1 1 -0 -2 -3 -4 -5 -4 -3 -1 -0 -1 -1 -2 -3 -4 -6 -6 -6 -6 -6 -7 -7 -8
9 8 8 7 6 6 7 6 6 6 5 3 2 2 1 1 1 1 1 0 -0 -1 -2 -3 -4 -5 -5 -4 -3 -3 -3 -3 -4 -6 -7 -6 -7 -7 -8 -8 -8 -9 -9
6 5 5 4 4 4 4 4 4 4 2 1 0 -0 -1 -1 -1 -1 -1 -1 -1 -0 -1 -3 -3 -5 -6 -6 -4 -4 -4 -5 -5 -6 -7 -7 -7 -8 -8 -9 -9 -10 -10
3 3 2 2 1 0 0 1 1 1 1 1 -0 -1 -2 -2 -3 -4 -5 -4 -2 -2 -2 -3 -3 -6 -7 -7 -7 -7 -7 -7 -7 -7 -8 -9 -9 -9 -9 -9 -10 -11 -12

GFSMW_925_temp_054.txt.gz
Temp
22 20 17 14 14 14 13 13 12 12 12 12 12 12 11 12 14 14 13 14 15 15 16 17 16 16 17 17 16 16 16 16 16 16 16 15 15 15 15 15 15 14 14
22 20 18 16 14 15 13 12 12 12 12 12 12 12 12 12 12 13 13 14 14 15 16 17 16 16 17 16 15 15 16 17 15 17 18 19 17 16 15 15 15 14 14
23 21 19 18 16 15 14 12 12 12 12 12 12 12 11 12 12 13 14 14 15 16 16 16 16 16 16 16 15 15 16 17 15 16 18 19 19 20 17 15 15 14 13
24 23 21 19 17 17 15 13 12 12 12 12 12 11 12 12 12 13 14 15 15 15 16 15 15 15 16 16 16 15 15 16 17 15 16 17 18 20 19 17 15 14 13
25 23 22 20 18 17 16 15 13 12 12 12 12 12 12 12 12 13 13 14 15 15 15 15 15 15 16 15 15 15 15 16 16 17 17 16 16 16 17 19 17 13 12
25 24 22 20 19 18 16 15 14 13 12 12 12 12 13 13 14 13 13 13 14 14 14 15 15 16 15 15 16 15 15 15 15 16 16 17 17 17 16 17 17 15 12
25 24 23 22 20 18 17 16 14 13 12 12 12 13 13 14 15 14 14 14 14 14 15 14 14 14 14 15 15 16 15 15 15 15 15 15 16 16 16 15 13 14 11
25 25 24 22 20 19 17 15 15 15 14 12 12 14 14 14 15 15 15 15 15 15 15 15 14 15 15 15 15 15 15 15 15 15 15 15 15 14 13 12 11 9 9
26 25 25 23 21 19 17 15 15 16 16 14 14 14 14 15 15 16 16 16 17 17 16 15 15 15 15 15 15 15 15 15 15 15 15 15 14 12 11 10 10 9 11
28 27 25 23 21 20 18 15 15 17 17 16 16 15 15 15 15 15 15 16 16 16 15 15 14 15 15 15 15 15 15 15 15 15 14 13 12 11 12 11 10 10 10
28 27 25 24 22 21 19 17 16 17 17 16 16 16 15 15 15 15 15 15 15 15 15 15 15 15 15 15 15 15 15 15 15 14 13 12 11 11 10 10 10 9 9
28 27 25 24 22 21 20 19 17 17 17 17 16 15 15 15 15 15 15 14 15 15 15 15 15 15 16 16 15 15 15 15 15 14 12 11 11 11 10 10 9 9 8
28 27 26 24 23 22 20 20 18 18 18 17 16 16 15 15 15 14 14 15 14 14 14 15 15 15 15 15 14 14 14 14 14 13 11 13 11 10 10 10 8 7 6
27 28 27 25 24 23 21 20 20 18 18 18 17 16 15 15 15 15 15 14 15 14 14 15 15 15 15 14 14 14 14 14 13 13 12 11 10 10 9 8 7 6 6
26 27 27 27 26 24 22 21 20 19 18 18 17 17 16 16 15 15 15 15 14 14 15 15 15 15 15 15 15 14 14 13 12 12 11 11 10 11 9 8 6 6 5
26 26 27 26 25 24 23 22 21 20 18 18 18 18 17 16 16 16 15 15 15 15 15 15 15 15 14 14 14 13 11 11 11 10 10 10 9 8 7 7 6 6 5
23 24 25 25 25 24 21 21 21 21 19 18 18 18 17 17 16 16 16 16 15 15 15 15 15 15 15 14 12 12 11 11 10 9 8 8 7 7 6 5 5 4 3
19 21 22 23 25 25 23 22 23 21 20 19 19 18 18 17 17 16 16 16 15 15 15 15 14 14 13 13 13 12 10 10 9 8 7 7 5 4 4 3 2 1 1
19 19 20 21 22 23 23 21 22 22 21 20 19 19 18 17 17 17 16 16 15 14 13 13 12 12 12 11 11 10 8 7 5 4 4 4 3 2 3 2 0 -1 -1
18 18 17 18 20 22 22 21 20 21 21 20 20 19 18 18 17 16 15 11 11 11 9 8 8 8 8 7 8 8 6 3 2 1 0 1 1 -0 -0 0 -1 -3 -4
16 15 15 16 18 19 19 20 20 20 20 19 18 18 17 16 13 9 10 9 8 6 5 4 3 4 3 3 5 5 4 2 -1 -2 -2 -1 -1 -1 -1 -2 -3 -4 -4
15 14 14 14 14 14 16 18 19 13 12 11 10 10 9 9 8 8 6 6 4 2 -0 -1 -2 -1 -0 1 1 2 2 -1 -2 -3 -3 -4 -4 -4 -5 -5 -5 -4 -5
13 11 10 9 8 9 12 14 9 8 7 6 5 5 5 4 3 3 1 1 1 -1 -2 -3 -4 -4 -3 -3 -2 -1 -1 -1 -2 -3 -4 -5 -6 -6 -7 -7 -7 -7 -6
9 7 5 5 4 4 4 6 6 5 4 3 2 2 2 1 1 1 1 -0 -1 -1 -2 -3 -4 -5 -5 -5 -4 -4 -5 -5 -5 -6 -6 -6 -6 -6 -7 -8 -8 -7 -7
2 3 2 2 2 2 2 2 2 2 1 1 -0 -1 -1 -2 -2 -2 -2 -1 -1 -1 -2 -4 -4 -5 -6 -6 -6 -5 -6 -6 -6 -7 -7 -6 -6 -6 -6 -7 -7 -8 -8
-1 -0 -1 -1 -1 -2 -1 -0 1 1 0 -0 -1 -2 -2 -3 -3 -4 -5 -4 -3 -2 -3 -4 -4 -6 -6 -6 -6 -6 -7 -7 -7 -6 -6 -6 -6 -6 -7 -7 -8 -9 -9

GFSMW_925_temp_057.txt.gz
Temp
27 25 21 20 19 17 14 14 13 12 12 12 12 12 12 12 13 14 14 15 15 15 16 16 17 17 18 18 18 18 18 18 19 19 18 18 17 17 17 17 17 17 16
27 25 22 19 19 17 14 13 13 12 12 12 12 12 12 12 12 13 14 15 15 15 16 16 16 16 18 18 17 17 18 18 18 19 19 19 18 17 16 17 17 17 16
28 26 23 20 18 18 15 13 12 12 12 12 13 12 12 12 12 12 14 14 14 15 16 16 16 16 18 18 17 17 17 18 18 17 19 20 20 20 18 16 17 17 15
29 27 24 22 19 18 17 14 13 12 13 12 12 12 12 12 12 12 13 15 15 15 16 16 17 17 17 18 17 17 17 18 18 17 17 18 18 19 17 18 16 16 16
29 28 26 23 21 20 17 15 12 12 12 12 12 12 13 13 13 13 13 15 15 15 15 16 17 17 17 17 17 17 16 17 18 18 18 17 18 18 18 18 18 17 17
30 29 27 24 22 21 19 15 14 12 12 12 12 12 12 12 13 12 12 14 15 15 15 17 17 16 16 16 16 16 16 16 17 17 17 17 17 18 18 17 18 17 16
30 29 27 26 24 21 20 17 15 14 12 12 12 13 13 12 13 13 13 13 14 14 15 15 16 16 15 15 16 16 15 16 16 16 16 16 16 17 18 17 17 18 16
29 29 28 26 24 22 20 19 17 16 13 12 12 13 14 13 14 14 14 14 13 14 15 16 16 16 16 15 15 16 16 16 16 16 16 16 16 17 17 17 17 15 14
30 29 28 27 25 23 21 20 19 18 16 13 12 13 13 14 14 15 15 15 15 15 14 15 15 15 15 15 16 16 16 16 16 16 16 16 16 17 17 16 15 14 13
31 30 29 28 26 24 22 20 20 19 18 17 14 13 13 14 15 15 16 16 16 16 16 15 15 15 15 15 16 16 16 16 16 16 16 16 16 16 16 14 13 12 12
29 30 30 29 27 25 23 21 20 20 20 19 17 15 15 15 15 15 16 16 16 16 17 17 16 16 16 16 16 16 16 16 16 16 16 16 16 15 14 12 11 11 10
30 29 29 28 27 25 24 22 20 20 20 20 19 17 17 16 16 16 16 16 17 17 17 17 17 17 17 16 16 16 16 16 16 16 16 16 15 14 13 12 11 11 10
29 30 29 28 27 26 25 23 21 20 20 20 20 18 18 18 17 17 17 17 17 17 17 17 17 17 16 16 16 16 16 16 16 16 16 16 14 14 13 11 10 10 10
28 29 29 29 28 26 25 24 23 21 21 20 20 19 18 18 17 17 17 17 17 16 16 16 16 16 16 16 16 17 17 17 16 15 15 15 14 13 12 11 10 10 9
26 26 27 28 29 28 26 25 24 23 21 21 21 20 19 18 18 17 17 17 17 17 16 16 16 16 16 16 16 16 16 16 15 15 15 14 14 14 12 11 9 9 8
23 23 24 25 26 27 28 26 25 24 23 21 21 21 20 18 18 18 17 17 17 16 16 16 16 16 16 16 16 16 16 15 14 14 14 14 13 12 12 11 9 9 7
21 21 22 22 23 24 25 25 26 24 23 22 21 21 20 19 19 18 18 17 17 17 17 16 16 16 16 16 16 15 15 15 14 14 13 12 11 11 10 8 7 6 5
21 21 21 21 20 21 23 24 25 25 24 23 22 21 21 20 19 19 18 18 18 17 17 17 16 16 16 16 16 15 14 14 13 12 11 10 9 8 7 6 4 3 2
20 20 19 18 18 19 20 22 24 24 25 24 23 22 21 21 20 19 19 18 18 17 17 17 16 16 15 15 14 14 12 11 10 9 8 7 6 4 5 4 1 -0 -1
19 18 17 17 17 17 17 19 23 24 24 25 24 23 22 21 20 20 19 18 17 16 12 12 12 12 11 11 11 11 10 7 4 3 2 2 2 0 0 1 -1 -2 -4
18 16 15 14 12 10 11 14 18 21 23 23 24 23 22 21 20 19 19 12 8 8 6 6 4 6 5 4 6 6 5 2 -1 -2 -2 -3 -2 -2 -1 -1 -2 -3 -4
16 15 12 10 7 5 5 8 14 15 15 16 18 13 12 12 10 9 8 8 7 4 1 -0 -1 -1 -0 1 2 3 3 0 -1 -3 -3 -4 -3 -3 -3 -4 -4 -5 -5
12 10 9 7 4 2 2 4 5 7 8 9 7 5 6 5 5 5 3 2 2 0 -1 -2 -3 -4 -3 -3 -1 -1 -1 -1 -3 -4 -5 -5 -5 -5 -6 -6 -6 -5 -5
9 6 5 4 1 -0 -0 -0 2 3 3 2 2 1 1 1 1 1 1 0 -0 -1 -2 -3 -4 -5 -5 -5 -4 -4 -4 -4 -5 -6 -6 -6 -6 -6 -7 -7 -7 -7 -7
3 3 1 2 -1 -2 -2 -2 -0 1 0 -0 -1 -2 -2 -3 -3 -3 -2 -2 -2 -2 -3 -4 -5 -5 -5 -6 -5 -5 -5 -5 -6 -6 -6 -6 -6 -6 -6 -6 -7 -7 -7
-1 -1 -2 -2 -3 -3 -3 -3 -2 -1 -1 -2 -2 -3 -3 -4 -4 -4 -5 -5 -4 -4 -4 -4 -5 -5 -5 -6 -6 -6 -6 -5 -5 -4 -4 -5 -5 -5 -6 -6 -7 -7 -8

GFSMW_925_temp_060.txt.gz
Temp
28 26 24 22 17 15 15 14 13 13 13 12 12 13 12 12 12 12 14 15 16 16 17 17 18 18 18 18 18 18 18 19 19 19 18 18 18 17 17 17 17 16 16
28 26 23 22 20 15 15 14 13 13 12 12 12 12 12 12 12 13 14 15 15 16 16 17 17 18 18 18 18 18 18 18 18 19 18 14 16 17 17 17 17 16 16
28 25 23 21 20 17 15 14 13 13 12 12 13 12 12 12 12 13 14 15 15 15 15 16 17 17 17 18 18 18 18 18 18 18 18 15 14 16 17 17 17 17 17
29 26 24 21 20 18 15 13 13 13 13 12 12 12 12 12 13 13 14 15 15 15 16 16 16 17 17 17 17 17 17 17 18 18 18 17 17 15 14 16 16 17 17
29 27 25 23 20 19 16 14 13 13 13 13 13 13 12 13 13 12 13 14 15 15 15 16 16 17 17 17 17 17 17 17 17 17 17 18 17 17 16 14 16 16 16
30 28 26 24 22 20 17 14 13 13 13 13 13 13 13 13 13 13 13 13 14 15 15 16 16 16 17 17 17 17 17 16 17 17 17 17 17 17 16 14 15 15 16
29 28 26 25 23 21 18 16 13 13 13 12 13 13 13 13 13 13 13 13 14 15 15 15 16 16 17 16 17 17 17 16 16 17 17 17 17 17 17 17 15 15 16
29 29 28 25 24 22 19 17 15 14 13 13 13 13 13 13 13 13 13 13 14 15 15 15 16 17 16 16 16 16 16 16 16 16 16 16 16 16 16 16 16 13 14
29 29 28 26 25 22 21 18 17 15 13 13 13 13 13 13 13 13 13 13 13 14 14 14 15 16 16 15 15 15 15 16 16 16 16 16 16 16 16 17 17 15 13
29 28 28 26 25 24 22 20 18 17 15 13 13 13 13 13 13 13 13 14 14 14 14 14 15 16 15 16 15 15 16 15 15 16 16 15 15 16 16 16 16 16 14
29 29 29 28 26 25 23 21 20 19 18 14 13 13 13 14 14 14 14 14 14 14 14 14 14 15 15 15 15 15 15 16 15 16 15 15 15 16 16 16 16 15 14
29 29 29 28 28 26 24 22 21 20 20 18 14 13 13 13 14 14 15 15 15 15 15 15 15 15 15 15 15 15 15 15 15 15 15 15 15 16 15 15 14 13 13
27 28 28 28 27 27 26 24 21 21 21 20 18 15 14 14 14 14 14 15 15 16 16 16 16 16 15 15 15 15 15 16 16 16 16 16 16 15 15 15 14 12 12
26 25 24 24 24 27 26 25 24 21 20 21 20 18 16 15 15 15 15 15 16 16 16 16 16 16 17 17 16 16 16 16 16 16 16 16 16 15 15 14 14 12 11
24 23 22 22 23 23 23 25 25 23 21 20 21 20 19 17 17 16 16 16 16 16 16 17 17 17 17 17 17 17 16 16 16 16 16 16 16 15 15 14 13 12 11
21 21 21 22 21 21 21 21 23 25 23 21 21 21 20 19 18 18 17 17 17 16 17 17 17 16 16 17 17 16 16 16 16 16 16 16 16 15 15 14 13 12 11
21 20 20 20 20 19 19 20 20 22 24 23 22 21 21 20 19 18 18 17 17 17 17 16 16 16 16 16 16 16 16 16 16 16 15 15 14 14 14 14 12 12 10
20 19 19 18 18 18 16 16 18 19 22 24 24 22 21 21 21 19 18 18 17 17 17 16 16 16 16 16 16 16 16 15 15 15 15 14 14 13 13 11 8 5 4
19 18 17 16 15 13 11 11 13 16 17 19 23 24 23 22 21 20 19 18 18 17 17 16 16 16 16 16 16 16 16 14 13 13 12 11 10 9 8 7 3 -0 -1
17 16 15 14 12 8 7 8 10 11 13 12 16 17 24 22 21 21 20 19 18 17 17 15 13 13 14 13 15 15 14 10 7 5 4 4 4 2 1 2 -1 -3 -4
15 13 12 11 8 5 4 6 6 7 6 7 11 11 13 19 22 21 20 19 18 14 9 8 6 7 7 7 9 11 10 6 1 -1 -2 -2 -1 -1 -0 0 -1 -3 -4
13 10 9 8 6 3 3 3 3 2 3 5 8 7 8 8 12 14 13 10 7 5 2 1 -0 1 3 3 4 4 5 2 -0 -3 -4 -4 -3 -3 -2 -3 -4 -4 -5
8 6 5 5 3 2 1 1 1 1 2 2 2 2 2 4 4 5 4 3 3 1 -1 -2 -3 -3 -3 -3 -2 -1 -1 -2 -4 -4 -5 -5 -5 -5 -5 -5 -5 -5 -5
3 2 1 1 0 -1 -1 -1 -1 -0 -0 -1 -1 -2 -2 -2 -0 0 0 0 -0 -1 -2 -3 -4 -4 -4 -4 -5 -5 -5 -5 -5 -5 -5 -5 -6 -6 -6 -7 -6 -7 -7
-0 -1 -1 -1 -2 -2 -3 -2 -2 -1 -2 -2 -3 -3 -3 -4 -4 -4 -3 -3 -3 -2 -3 -4 -4 -4 -5 -5 -5 -5 -5 -5 -5 -5 -5 -5 -6 -6 -7 -7 -7 -7 -8
-2 -3 -4 -4 -4 -4 -4 -3 -3 -3 -3 -3 -3 -4 -4 -4 -4 -4 -4 -5 -5 -5 -5 -5 -5 -5 -5 -5 -5 -5 -5 -4 -4 -5 -5 -5 -6 -6 -7 -7 -8 -9 -9

GFSMW_925_temp_063.txt.gz
Temp
23 22 19 17 16 16 15 14 13 13 13 13 13 13 13 13 12 13 13 15 15 15 16 16 17 17 16 17 18 18 18 18 17 17 17 17 17 17 17 16 15 15 15
22 21 17 16 15 15 15 14 13 13 12 12 13 13 13 12 12 12 13 13 14 16 16 17 17 16 17 17 18 18 18 18 18 17 16 13 15 16 17 17 16 15 15
22 20 18 15 14 14 14 14 14 13 12 12 12 12 12 12 12 12 12 14 15 16 16 16 16 16 16 16 18 18 18 18 18 18 17 11 12 14 17 17 17 17 16
23 21 19 16 14 14 15 14 14 13 13 12 12 12 12 12 12 12 13 14 15 16 16 15 15 16 17 18 18 18 17 16 18 17 18 18 17 12 13 16 17 16 16
22 20 19 19 15 15 15 15 14 13 13 13 12 12 12 13 12 13 14 14 15 16 16 17 17 17 18 18 17 17 17 17 18 18 18 18 17 16 13 12 14 16 16
22 21 20 19 16 14 14 14 13 12 12 12 13 12 12 12 12 13 13 14 14 15 16 16 16 17 17 17 17 17 17 17 17 17 18 18 17 15 15 12 13 14 16
23 21 19 18 18 14 13 13 13 13 13 12 12 13 12 13 13 12 13 13 14 14 15 16 16 16 16 17 17 17 16 17 17 17 17 17 17 17 17 15 14 13 16
23 22 20 19 18 15 13 13 13 13 13 12 12 12 12 12 12 13 13 13 13 14 15 16 16 16 16 16 17 17 16 16 17 17 17 17 17 17 17 16 15 11 12
23 22 21 20 19 17 14 14 13 14 13 13 12 12 13 13 13 13 13 13 13 14 14 15 15 16 16 16 16 16 16 16 16 16 16 17 17 16 17 17 16 15 12
23 23 22 21 20 18 16 14 14 14 14 13 13 13 13 13 13 13 13 13 13 14 14 15 15 15 15 16 15 16 16 16 16 16 16 16 16 16 16 16 16 16 14
22 23 23 22 21 19 16 16 15 14 13 13 13 13 13 13 13 13 13 13 13 13 14 14 15 15 15 15 15 15 15 15 15 15 15 16 16 15 15 15 15 15 14
21 21 20 21 21 20 18 17 16 15 14 14 13 13 13 13 13 13 13 13 13 13 13 14 14 14 14 14 15 15 14 14 14 14 14 14 15 15 15 15 14 14 14
20 20 20 20 19 19 19 18 17 17 16 13 13 12 13 13 13 13 13 14 13 13 13 13 13 14 14 14 14 14 14 14 14 14 14 14 14 14 14 14 13 13 14
19 19 19 18 18 18 18 19 19 18 18 15 14 13 13 13 13 13 14 13 13 13 13 13 13 13 14 14 14 14 14 14 14 14 14 14 14 14 14 13 13 13 13
19 19 18 17 18 18 18 18 18 19 18 18 16 14 14 13 13 13 13 13 13 13 14 14 14 14 14 14 14 14 14 14 14 14 14 14 14 14 14 14 14 13 13
18 18 17 17 16 14 13 13 13 14 16 19 18 18 15 14 14 13 13 13 13 13 14 14 15 14 14 15 15 15 14 14 14 14 14 14 14 15 15 15 15 14 13
16 16 15 14 13 10 9 9 10 12 13 15 17 18 19 17 15 15 14 14 14 14 14 14 14 15 15 15 15 15 15 15 15 14 14 14 14 15 15 15 14 13 13
14 14 13 11 9 7 7 7 8 9 10 9 10 11 12 15 18 17 16 16 15 15 15 15 15 15 15 15 15 16 16 15 15 15 15 14 14 15 14 13 11 8 7
12 12 11 8 6 5 4 5 6 6 6 6 6 8 10 9 11 15 17 17 16 16 16 15 15 15 15 15 15 15 15 14 14 13 13 13 13 13 13 11 6 1 -1
10 9 8 6 4 3 3 4 4 4 3 4 4 5 7 6 7 8 11 17 17 16 16 15 15 14 14 14 15 15 14 12 9 7 7 7 9 8 7 6 0 -3 -4
6 5 5 4 2 1 2 2 2 2 1 2 3 3 3 3 4 5 8 14 16 16 14 11 8 9 10 9 10 13 13 10 6 3 1 1 2 2 2 1 -1 -3 -3
3 2 2 1 -0 -1 -1 -0 -0 -0 1 1 0 -0 -1 -0 1 2 4 6 6 6 4 3 2 2 3 5 6 6 7 3 1 -2 -3 -3 -3 -3 -2 -3 -4 -4 -4
1 1 1 -0 -1 -2 -2 -2 -2 -1 -1 -1 -2 -3 -3 -3 -1 -1 -0 1 2 1 0 -1 -2 -3 -3 -3 -2 -1 -2 -3 -3 -4 -4 -5 -5 -5 -5 -5 -5 -5 -5
-0 -1 -1 -2 -3 -3 -3 -3 -3 -2 -2 -3 -3 -4 -4 -4 -4 -3 -3 -3 -1 -1 -2 -2 -3 -4 -5 -5 -5 -5 -5 -5 -5 -5 -6 -6 -5 -5 -6 -6 -6 -6 -7
-2 -3 -3 -3 -3 -4 -4 -4 -3 -3 -3 -4 -4 -4 -4 -4 -4 -5 -4 -4 -4 -3 -3 -4 -4 -4 -5 -5 -5 -5 -5 -6 -6 -6 -6 -6 -7 -7 -7 -8 -8 -8 -9
-4 -4 -5 -4 -4 -4 -4 -4 -4 -4 -3 -4 -4 -5 -5 -5 -5 -5 -5 -5 -5 -5 -4 -4 -4 -4 -4 -4 -4 -5 -5 -5 -5 -6 -6 -7 -7 -7 -8 -9 -10 -10 -10

GFSMW_925_temp_069.txt.gz
Temp
21 16 15 14 15 15 16 15 14 14 15 14 14 13 14 13 13 14 14 14 14 14 14 14 15 14 15 15 15 16 16 15 15 14 12 12 13 13 13 13 13 13 13
16 15 14 13 13 13 14 14 14 13 14 14 14 14 13 13 13 13 14 13 14 14 14 15 15 15 15 14 15 16 15 15 15 14 13 11 12 12 12 13 13 14 14
18 15 14 14 13 13 13 14 14 14 14 14 14 13 13 13 13 13 13 13 13 14 13 14 14 14 15 15 15 16 16 15 15 15 15 12 12 12 13 13 13 13 14
19 16 14 14 13 13 13 14 13 13 13 14 13 13 13 13 13 13 13 13 13 14 14 14 13 14 14 15 15 15 16 16 15 15 16 17 16 12 12 13 13 14 14
19 17 14 14 14 13 12 13 13 13 13 13 13 13 13 12 12 12 12 12 12 13 14 13 14 14 15 15 16 15 16 16 16 16 15 16 15 15 12 11 12 13 13
20 18 16 14 13 13 12 12 12 13 13 14 13 13 12 12 12 12 12 12 12 12 13 13 14 15 15 16 16 16 15 16 17 16 16 15 15 14 13 11 11 13 14
19 17 14 14 13 13 12 12 12 12 13 14 13 13 12 12 12 12 12 12 12 12 13 13 13 14 15 15 14 14 15 15 16 17 16 17 17 18 15 16 13 12 15
20 17 15 14 13 13 13 12 12 12 12 12 13 13 13 12 12 12 12 12 12 12 12 13 13 13 14 14 14 13 14 14 14 17 17 17 17 16 16 17 15 10 11
20 17 15 14 13 13 13 12 12 12 12 12 13 12 12 13 12 12 12 12 12 12 12 13 13 13 13 13 13 13 13 13 13 16 17 17 16 16 16 16 17 14 13
17 17 15 14 14 13 12 12 12 12 12 12 12 12 12 13 13 12 12 12 12 13 13 13 13 13 13 13 13 13 14 14 14 16 16 16 16 16 16 16 16 15 14
16 15 15 14 13 13 12 12 12 12 12 12 12 12 12 12 12 12 12 12 12 13 13 14 14 13 13 13 12 12 13 13 14 15 15 16 16 15 15 15 15 14 13
15 15 15 14 13 13 13 13 12 12 12 12 12 12 12 12 12 12 12 13 13 14 14 13 13 13 14 13 13 13 13 14 14 15 15 15 15 14 14 13 13 13 13
13 13 13 12 12 13 13 12 13 13 13 12 12 12 12 12 12 12 13 13 14 13 13 13 13 13 13 13 13 14 14 14 14 14 14 13 13 14 13 13 13 13 13
12 11 11 10 10 9 10 10 10 11 11 12 13 12 12 12 12 12 12 13 13 13 13 13 12 12 12 13 13 13 13 13 13 13 13 13 13 13 13 13 13 13 12
12 10 9 8 8 7 7 8 8 8 9 11 10 11 12 12 12 12 12 12 12 12 12 13 13 12 12 12 12 13 13 13 12 13 13 13 13 13 13 13 13 13 12
11 9 8 7 6 6 6 6 6 6 6 7 6 7 9 10 11 12 12 12 12 12 12 12 12 12 12 13 12 12 12 12 12 12 12 13 13 13 13 13 13 14 12
9 8 7 5 4 4 4 4 4 4 4 4 4 5 5 6 7 8 9 11 12 12 12 12 12 12 12 13 13 13 12 12 12 12 12 12 12 12 12 12 13 13 13
7 5 4 4 3 2 3 2 2 2 3 3 3 3 2 3 3 4 5 5 6 8 9 11 12 12 12 12 13 13 12 11 11 12 12 12 12 12 12 11 11 12 12
5 3 2 1 1 1 1 1 1 1 2 1 1 0 0 1 2 2 2 2 4 4 5 6 7 9 12 12 12 13 12 11 11 11 11 11 11 12 12 12 11 10 8
3 1 0 -0 -1 -1 -0 -0 0 0 0 -1 -1 -2 -2 -1 -1 -1 -0 0 1 2 3 3 3 3 5 7 9 10 10 11 11 11 11 11 10 11 11 11 10 5 1
2 1 -1 -2 -2 -1 -1 -1 -1 -1 -2 -2 -3 -3 -4 -3 -3 -2 -2 -1 -0 0 -1 -1 -1 -1 -2 -1 1 5 7 8 10 9 5 4 3 5 6 7 8 3 -3
-0 -1 -2 -2 -3 -2 -2 -2 -2 -3 -3 -4 -4 -4 -4 -4 -4 -4 -3 -2 -2 -2 -2 -3 -4 -4 -4 -4 -3 -0 3 4 2 -2 -3 -3 -3 -2 -1 -1 -3 -4 -5
-2 -3 -3 -3 -4 -4 -3 -3 -4 -4 -4 -4 -5 -5 -5 -5 -4 -4 -4 -3 -3 -3 -3 -4 -4 -4 -5 -5 -5 -5 -4 -4 -4 -5 -6 -6 -6 -6 -6 -6 -4 -4 -5
-3 -3 -3 -4 -4 -5 -4 -4 -4 -4 -5 -5 -5 -6 -5 -6 -6 -5 -5 -5 -4 -4 -4 -4 -4 -5 -5 -5 -5 -6 -6 -6 -6 -6 -7 -7 -7 -7 -6 -7 -8 -7 -8
-4 -4 -5 -5 -5 -5 -6 -5 -5 -5 -6 -6 -6 -7 -7 -6 -6 -7 -6 -6 -6 -6 -6 -6 -6 -5 -5 -6 -6 -6 -7 -7 -7 -7 -8 -8 -9 -9 -9 -10 -10 -10 -10
-7 -7 -7 -6 -6 -6 -6 -6 -6 -6 -6 -6 -7 -7 -7 -7 -7 -7 -7 -8 -7 -7 -7 -7 -7 -7 -7 -7 -7 -7 -7 -7 -7 -9 -9 -10 -10 -10 -11 -11 -11 -11 -12

GFSMW_925_temp_072.txt.gz
Temp
21 17 15 16 16 16 15 14 14 14 15 14 13 14 13 13 14 13 14 14 13 14 14 13 14 14 14 13 13 14 14 13 13 12 11 11 12 12 12 12 12 12 12
16 14 14 14 15 14 15 14 13 14 15 15 13 14 13 13 13 13 14 14 14 14 14 14 14 14 14 14 14 14 14 13 13 13 12 10 11 11 12 12 12 12 12
16 14 14 14 14 14 13 14 13 13 14 15 13 14 14 13 13 13 13 14 14 14 14 14 14 14 14 14 14 14 14 13 13 14 14 11 12 11 12 12 13 13 13
17 14 14 14 14 13 13 13 13 13 14 14 13 13 13 13 13 13 13 13 13 14 14 14 14 14 14 15 14 15 15 15 13 14 15 16 15 12 11 12 13 13 13
16 14 14 14 14 14 13 13 13 13 14 13 13 13 13 14 13 13 13 13 13 13 13 14 14 13 14 14 15 15 15 15 14 14 15 15 15 15 13 12 12 14 14
16 15 14 14 14 14 12 13 13 12 12 13 13 13 13 13 13 12 12 13 13 13 13 13 12 13 14 15 15 15 16 16 15 15 15 15 15 13 13 11 11 13 15
15 14 14 14 15 13 12 12 12 12 12 13 13 13 13 13 13 13 12 12 12 12 12 13 13 13 13 14 15 14 15 16 15 15 15 16 17 17 16 16 13 13 16
16 15 14 14 15 13 13 12 12 12 12 12 12 14 13 12 13 13 12 12 12 12 12 12 13 13 13 13 13 14 15 15 15 14 14 15 16 16 17 17 16 11 11
16 16 14 14 14 13 13 12 12 12 12 12 13 12 12 12 12 13 12 12 12 12 12 12 13 12 13 12 13 13 14 14 14 14 13 13 13 16 17 17 15 14 13
16 15 13 14 14 14 13 13 12 12 12 12 13 13 12 12 12 12 12 12 12 12 11 11 12 12 12 12 12 12 13 13 13 13 12 13 13 13 14 16 15 14 14
15 14 13 14 14 13 12 12 12 12 12 12 11 12 12 12 12 12 12 12 13 12 12 12 12 12 12 12 12 12 12 12 13 12 12 13 14 13 14 14 14 13 13
12 13 13 13 13 12 12 12 12 12 12 12 12 12 12 12 12 12 12 12 12 12 12 13 13 13 13 13 12 12 12 12 12 12 12 12 12 12 12 12 13 13 13
10 10 11 11 11 12 12 12 12 12 12 12 12 12 12 12 12 13 13 12 12 12 12 12 13 13 13 13 13 13 12 12 12 12 12 12 12 12 12 12 12 12 12
10 9 8 8 9 8 8 8 8 9 11 12 12 12 12 12 12 12 13 13 13 13 13 13 13 13 13 13 12 12 12 12 12 12 12 12 12 13 13 13 13 13 12
9 9 8 7 7 6 6 6 6 6 7 8 9 9 10 12 12 12 12 12 13 13 13 13 13 13 14 13 12 12 12 12 12 12 12 12 12 13 13 13 13 12 12
8 7 6 6 5 5 4 4 4 4 5 5 5 6 7 8 9 9 10 11 12 12 12 12 12 12 12 12 12 12 12 11 12 12 12 12 12 12 13 13 13 14 13
7 5 4 4 3 3 3 2 2 3 3 3 3 3 3 4 5 6 7 7 8 9 9 10 11 11 11 12 12 12 12 11 12 12 12 12 12 12 12 12 12 12 13
4 3 3 2 1 2 1 1 1 1 1 0 0 0 1 1 2 3 3 3 4 5 5 6 6 7 6 7 8 9 10 10 11 11 11 11 11 11 11 11 11 11 12
2 1 0 0 0 0 0 0 0 -0 -1 -1 -2 -2 -2 -1 -0 -0 0 1 1 2 2 2 2 2 1 0 3 5 7 8 10 10 11 10 11 11 11 11 10 10 10
1 0 -1 -1 -1 -1 -0 -0 -1 -2 -2 -3 -4 -4 -2 -2 -2 -2 -1 -0 0 0 -1 -2 -2 -2 -2 -2 1 4 6 7 7 9 5 5 5 9 10 8 9 10 5
0 -1 -1 -2 -2 -2 -2 -2 -2 -3 -3 -4 -4 -5 -4 -3 -3 -3 -2 -2 -2 -2 -3 -3 -4 -4 -4 -4 -3 1 2 2 1 -2 -3 -3 -3 1 4 3 4 3 -3
-2 -2 -2 -3 -3 -3 -2 -4 -4 -4 -4 -5 -5 -5 -5 -4 -5 -4 -4 -3 -3 -3 -4 -4 -4 -5 -5 -5 -5 -6 -5 -4 -5 -6 -6 -6 -6 -5 -4 -4 -5 -5 -5
-2 -3 -3 -4 -4 -4 -4 -4 -5 -5 -5 -5 -5 -6 -6 -6 -6 -5 -5 -4 -4 -4 -4 -4 -5 -5 -5 -6 -6 -6 -7 -7 -7 -7 -8 -8 -8 -8 -8 -8 -8 -6 -7
-3 -3 -4 -4 -5 -5 -5 -5 -5 -5 -5 -6 -6 -6 -6 -6 -6 -6 -6 -6 -6 -6 -6 -6 -6 -6 -6 -7 -6 -6 -6 -6 -7 -7 -7 -8 -9 -9 -9 -8 -9 -10 -10
-5 -5 -5 -5 -6 -6 -6 -6 -6 -6 -6 -6 -7 -7 -7 -7 -7 -7 -7 -7 -7 -7 -7 -7 -7 -7 -6 -6 -7 -7 -7 -7 -7 -6 -6 -8 -9 -10 -11 -11 -11 -11 -11
-7 -7 -7 -7 -7 -7 -8 -7 -6 -6 -6 -7 -7 -8 -8 -8 -8 -8 -8 -8 -8 -8 -7 -7 -7 -7 -7 -7 -8 -8 -8 -8 -8 -9 -11 -11 -11 -12 -12 -12 -13 -12 -13

GFSMW_925_temp_075.txt.gz
Temp
23 23 18 17 17 15 14 14 14 14 14 14 13 14 14 14 14 14 14 14 13 14 14 13 14 13 13 13 14 13 13 13 13 13 12 12 12 12 12 12 12 12 12
23 21 17 17 16 15 14 14 14 14 14 14 14 14 14 13 14 14 14 14 14 13 13 13 13 13 13 13 13 14 13 13 13 15 14 14 13 12 11 12 12 12 12
23 20 17 17 16 15 14 14 14 14 14 15 13 13 13 13 13 13 13 13 13 13 14 13 13 13 12 12 13 14 14 14 13 14 16 15 16 14 12 11 11 11 12
22 21 18 17 16 16 14 14 14 14 15 15 14 13 13 13 13 13 13 13 13 13 13 13 13 13 13 13 13 13 14 14 13 13 14 15 15 16 14 11 12 12 12
21 20 18 18 17 15 14 13 13 13 14 14 14 13 13 14 13 13 13 13 13 13 13 13 13 13 13 13 13 13 13 14 14 14 14 14 14 15 16 15 13 11 12
21 20 18 17 16 15 14 12 13 13 13 14 14 13 13 13 13 13 13 13 13 13 13 13 14 13 13 14 15 14 14 14 14 14 14 15 16 15 16 15 14 14 13
20 18 17 17 16 15 13 12 13 13 13 13 13 13 13 13 13 13 13 13 13 13 13 13 13 13 13 13 14 14 14 14 14 14 14 15 16 17 16 16 15 16 14
20 18 18 17 16 15 13 13 13 12 12 13 13 13 13 13 13 13 13 12 12 12 12 12 13 13 12 13 12 14 14 14 14 15 15 15 15 16 16 16 16 16 14
19 19 17 17 16 15 13 13 13 12 11 12 12 13 13 13 13 13 13 12 12 12 12 13 12 12 13 12 12 13 13 14 14 14 14 14 13 14 14 14 16 17 17
16 17 16 16 16 14 13 12 13 13 12 11 12 12 12 13 13 13 13 12 12 12 12 12 12 12 12 12 12 12 13 13 14 14 15 14 14 14 14 14 14 14 15
14 15 16 15 14 13 13 12 13 13 13 12 12 12 12 12 12 12 12 12 12 12 12 12 12 12 12 12 12 12 12 12 13 13 13 13 12 14 13 12 12 12 12
10 13 14 13 13 12 12 12 12 13 13 12 12 12 11 11 11 11 12 12 12 12 12 12 11 11 11 12 11 11 12 12 12 12 12 11 12 11 12 11 12 12 12
9 9 9 9 11 11 11 10 11 11 12 12 12 12 12 12 11 11 11 11 12 12 12 12 12 12 12 12 11 12 12 11 11 11 11 11 11 11 11 11 12 12 12
7 7 7 7 7 7 7 7 7 8 11 12 12 11 11 12 12 11 11 11 11 11 12 12 12 12 12 12 13 12 12 12 12 12 12 12 12 13 13 12 13 12 12
7 6 5 6 5 5 5 6 6 6 7 7 7 7 9 10 11 11 11 12 12 12 11 11 11 12 12 12 12 12 12 12 12 12 12 12 12 12 13 13 13 13 13
6 5 5 5 4 4 4 5 4 3 5 4 3 4 5 6 6 7 9 10 10 10 11 11 11 11 10 9 10 11 11 12 12 12 12 12 12 12 12 12 13 13 14
6 5 4 3 3 3 3 3 3 2 2 1 2 2 3 3 3 4 5 5 6 7 6 6 7 7 6 5 7 8 9 10 10 11 11 12 12 12 11 12 12 12 12
4 3 2 2 2 2 2 1 1 1 1 1 0 1 1 2 2 2 2 3 3 3 3 2 3 2 1 3 4 6 8 8 8 9 10 10 10 11 10 10 10 10 11
1 1 0 0 0 1 1 0 -0 -0 -1 -1 -1 -0 -0 -0 0 0 1 1 2 1 -1 -1 -1 -2 -2 0 3 6 7 7 6 5 5 3 4 6 8 9 9 10 8
0 -0 -1 -1 -1 -1 -1 -1 -1 -2 -2 -3 -3 -2 -2 -2 -1 -1 -1 -1 -1 -2 -2 -3 -3 -4 -3 -4 -1 2 1 2 -0 -1 -2 -3 -0 2 4 5 5 4 0
-1 -1 -2 -2 -2 -2 -2 -2 -2 -3 -3 -4 -4 -4 -3 -3 -2 -2 -2 -2 -2 -3 -3 -3 -4 -4 -5 -5 -5 -2 -3 -4 -5 -6 -6 -6 -5 -5 -4 -1 -1 -4 -4
-1 -2 -2 -3 -3 -3 -3 -3 -3 -4 -4 -4 -4 -4 -5 -4 -4 -3 -3 -3 -3 -3 -3 -4 -4 -5 -6 -6 -6 -6 -6 -5 -6 -7 -7 -7 -7 -7 -7 -7 -7 -7 -6
-2 -3 -3 -3 -4 -4 -4 -4 -4 -5 -4 -4 -5 -5 -5 -5 -5 -5 -5 -5 -5 -4 -4 -5 -5 -5 -6 -6 -7 -7 -7 -7 -7 -7 -8 -8 -8 -8 -8 -6 -6 -6 -8
-3 -3 -4 -4 -5 -5 -5 -5 -5 -5 -5 -5 -5 -5 -6 -6 -6 -6 -6 -6 -5 -5 -5 -5 -5 -5 -6 -6 -6 -7 -7 -7 -7 -7 -8 -9 -9 -8 -9 -9 -9 -9 -9
-5 -5 -5 -5 -6 -6 -6 -6 -5 -5 -5 -6 -6 -6 -6 -6 -7 -7 -7 -7 -7 -6 -6 -6 -6 -6 -6 -7 -7 -7 -7 -8 -8 -8 -8 -8 -8 -9 -9 -10 -10 -10 -10
-6 -7 -7 -7 -7 -7 -8 -8 -7 -6 -6 -6 -6 -7 -7 -7 -7 -7 -8 -9 -8 -8 -8 -8 -7 -8 -8 -8 -8 -9 -9 -8 -9 -9 -9 -10 -10 -10 -10 -11 -11 -11 -12

GFSMW_925_temp_078.txt.gz
Temp
29 29 27 24 23 22 21 19 16 15 15 14 14 14 14 14 14 14 14 14 14 14 14 14 13 13 13 14 14 16 17 17 17 17 16 16 15 15 15 15 15 16 15
28 29 27 23 22 22 21 19 16 15 15 15 14 14 14 14 14 14 14 14 14 14 14 14 13 13 12 13 14 16 16 17 17 17 17 15 14 14 15 15 15 15 15
28 29 27 24 22 22 20 19 18 17 16 16 15 15 14 14 13 14 14 14 14 14 14 13 13 13 13 13 14 15 16 17 16 18 18 18 18 16 15 14 15 14 14
28 28 28 25 23 22 20 19 18 17 17 17 16 15 15 14 14 14 13 13 14 13 13 13 13 13 13 13 14 15 16 17 16 17 18 19 20 19 17 16 15 14 14
28 29 28 26 23 22 20 19 18 17 17 17 16 16 14 14 15 14 13 13 13 12 12 13 13 13 13 13 14 15 15 16 17 16 17 17 17 18 20 18 16 15 14
26 27 27 24 23 21 19 18 18 16 17 17 16 15 15 14 15 13 13 13 13 13 13 13 13 13 13 13 13 14 14 15 16 15 16 17 18 18 19 19 19 17 16
25 26 25 24 22 21 17 16 17 16 16 16 16 16 16 15 15 15 14 13 13 13 13 13 13 12 12 12 13 13 14 14 15 15 16 16 17 18 18 19 19 18 18
24 25 24 23 22 20 15 15 17 15 15 16 17 15 15 13 14 14 15 14 13 13 13 13 13 12 12 13 13 12 13 14 14 15 15 16 15 16 17 18 18 18 18
22 24 23 23 21 20 14 14 15 15 15 15 16 15 14 14 14 13 13 13 13 13 13 12 12 12 13 13 13 13 13 13 13 14 14 15 15 16 16 16 17 17 17
18 21 21 21 20 17 14 14 15 14 14 14 14 15 15 14 13 13 13 14 13 12 13 12 12 12 12 12 12 12 12 12 13 13 13 14 15 15 15 15 14 15 15
12 18 19 19 17 15 14 14 15 14 13 13 13 15 15 14 13 13 13 13 12 12 12 12 12 12 12 12 11 12 12 11 11 12 12 13 14 13 13 13 13 13 13
10 10 14 15 14 14 13 13 16 16 15 13 13 14 14 14 14 13 13 12 12 12 12 12 12 12 12 12 12 12 12 11 11 12 11 12 12 12 12 13 13 12 12
8 8 8 8 8 10 12 12 13 14 13 13 13 13 12 12 13 14 14 14 13 12 12 12 12 12 12 12 12 12 12 12 12 12 12 12 12 12 12 12 12 12 12
6 6 6 6 6 6 6 7 8 10 12 12 11 11 12 12 12 12 13 13 13 13 12 12 12 12 12 12 13 13 13 13 12 13 12 12 13 13 13 13 13 13 13
5 5 5 5 5 5 5 5 5 6 6 6 6 6 8 9 10 11 12 12 12 13 14 14 13 13 12 10 13 13 12 12 13 13 13 14 14 14 14 14 14 14 14
4 4 4 4 4 4 4 4 3 3 4 4 4 5 5 5 6 7 8 9 9 10 10 11 11 10 7 6 10 11 11 11 12 12 13 13 13 13 13 13 13 14 14
4 4 3 3 3 3 3 4 4 3 3 3 4 4 5 4 4 4 4 5 5 5 5 4 4 4 3 4 6 7 9 9 9 9 9 10 11 11 11 11 12 12 12
2 3 3 3 3 2 2 2 3 3 3 3 3 3 3 4 5 5 4 4 2 1 0 0 0 0 -1 2 5 6 7 6 5 4 4 4 5 6 6 8 9 10 9
1 1 2 1 1 2 2 1 2 2 1 1 1 1 2 2 3 2 2 2 2 0 -1 -1 -1 -1 -3 -2 2 4 5 2 -1 -3 -2 -1 -1 1 4 5 5 6 3
-1 -0 1 1 1 -0 1 1 1 -0 -1 -1 -0 -0 0 1 1 1 1 1 0 -0 -1 -1 -2 -3 -2 -4 -1 -1 -1 -2 -3 -4 -4 -5 -4 -2 2 1 1 -2 -4
-1 -1 -1 -0 0 0 0 -0 -0 -1 -2 -2 -2 -2 -1 -1 -1 -0 -0 -0 -0 -1 -1 -2 -3 -3 -5 -5 -5 -4 -3 -4 -5 -5 -6 -6 -6 -6 -5 -4 -4 -6 -5
-1 0 0 -1 -1 0 0 -0 -2 -3 -2 -2 -2 -3 -2 -1 -1 -2 -1 -1 -1 -1 -1 -2 -3 -4 -5 -6 -6 -6 -5 -4 -4 -5 -6 -7 -7 -7 -7 -6 -6 -5 -5
0 0 -1 -1 -2 -1 -1 -1 -2 -2 -2 -3 -3 -3 -3 -3 -2 -2 -1 -1 -1 -1 -1 -2 -3 -4 -4 -4 -6 -6 -7 -7 -6 -7 -7 -7 -7 -6 -7 -7 -6 -6 -5
-1 -0 -1 -2 -3 -3 -2 -2 -2 -2 -2 -3 -3 -4 -3 -3 -3 -4 -3 -3 -3 -3 -3 -3 -3 -4 -5 -5 -5 -5 -5 -6 -6 -6 -6 -6 -6 -7 -7 -7 -7 -7 -7
-4 -3 -2 -3 -3 -3 -4 -3 -2 -2 -3 -3 -3 -4 -4 -5 -6 -6 -6 -6 -7 -5 -5 -5 -5 -5 -6 -7 -8 -7 -7 -6 -7 -6 -6 -6 -6 -6 -7 -7 -8 -8 -7
-4 -4 -4 -5 -5 -5 -5 -5 -4 -3 -3 -3 -4 -4 -4 -4 -4 -6 -8 -9 -8 -8 -8 -8 -7 -8 -8 -9 -9 -9 -9 -8 -7 -6 -6 -7 -7 -7 -7 -8 -8 -9 -9

GFSMW_925_temp_081.txt.gz
Temp
30 31 31 30 29 28 25 23 21 20 19 18 17 16 16 16 15 14 14 15 15 15 15 14 14 14 14 14 14 15 16 18 18 18 17 17 17 17 18 18 18 18 17
29 30 31 29 27 27 25 23 21 20 19 19 18 17 16 17 16 15 14 14 14 14 14 14 14 13 13 13 14 14 15 18 17 17 17 15 15 16 16 16 17 17 17
29 30 30 29 26 26 25 23 21 19 19 19 18 16 15 16 15 15 15 14 15 15 14 14 14 13 13 13 14 14 16 17 17 18 18 17 17 17 16 16 16 17 17
29 30 30 30 27 26 25 24 21 20 19 19 17 16 16 16 17 16 15 15 15 15 14 14 13 13 13 13 13 14 15 16 17 18 19 19 20 19 17 16 16 17 17
29 29 30 31 28 26 24 23 22 21 20 19 20 19 19 18 17 17 15 14 14 14 14 13 13 13 13 13 13 14 15 16 17 18 19 19 19 19 19 18 17 16 16
29 30 31 30 29 26 24 22 22 21 20 20 20 19 19 18 17 16 15 14 13 13 13 13 13 13 13 13 13 14 15 16 17 17 18 18 18 18 20 20 19 18 17
27 28 29 30 29 26 23 22 22 20 21 20 19 19 18 17 16 16 15 13 13 13 12 12 13 13 13 13 13 14 15 15 16 17 17 17 18 18 19 19 20 18 18
24 27 29 29 27 25 23 22 22 20 20 20 19 18 18 18 18 17 16 14 13 13 13 12 13 12 13 13 13 14 14 15 15 16 16 16 16 17 17 17 17 19 19
20 24 27 27 26 24 20 20 21 17 19 20 19 19 18 17 17 16 15 15 14 13 13 13 13 12 13 13 13 13 13 14 14 15 15 15 16 15 16 17 17 17 17
14 17 25 25 25 21 17 16 18 16 17 19 19 17 17 16 16 15 15 15 14 14 13 13 13 13 12 12 12 12 12 13 13 14 14 14 15 14 15 15 16 16 16
10 12 15 22 20 17 15 15 16 16 16 16 17 16 16 16 16 15 15 15 15 14 13 13 12 12 12 12 11 11 12 12 13 13 13 13 13 13 14 14 14 14 15
8 8 9 10 16 15 15 15 16 15 15 15 15 15 15 15 15 15 15 15 14 13 13 13 12 12 12 12 12 11 11 11 11 11 11 11 12 12 13 13 13 13 13
7 7 7 7 8 8 10 11 15 15 14 14 14 14 15 15 15 14 14 13 13 12 12 13 13 13 12 12 12 12 11 11 11 11 11 11 11 12 12 12 12 12 12
5 5 5 5 5 6 6 6 7 10 12 12 12 12 13 14 14 14 15 14 13 13 13 12 12 12 12 12 12 12 12 12 12 12 12 12 12 12 12 11 12 13 13
4 4 4 4 4 4 4 4 5 5 6 7 7 7 8 10 11 11 12 12 12 11 12 12 11 10 10 10 11 11 12 12 13 13 13 13 13 13 12 13 14 14 14
4 3 3 3 3 3 3 3 3 3 4 5 5 5 5 6 7 7 7 9 9 9 9 8 7 6 5 5 8 11 11 11 11 11 11 11 11 12 12 12 13 12 11
4 3 3 2 2 2 2 2 2 3 3 3 4 5 5 5 5 5 5 4 3 4 4 3 3 2 3 5 6 8 8 7 7 7 7 7 7 8 9 10 9 9 9
2 2 1 1 1 1 1 2 1 1 2 3 3 4 5 5 4 3 3 2 1 1 0 0 0 1 1 4 6 5 5 4 2 2 1 1 2 3 5 6 5 4 3
1 -0 0 1 1 1 1 1 1 1 1 1 2 3 3 4 3 3 2 2 1 -0 -0 -1 -1 -2 -2 0 3 3 1 -1 -2 -3 -2 -3 -2 1 3 3 2 -1 -2
-1 -1 -1 -1 -1 -1 1 0 0 0 -0 0 1 1 1 2 1 2 1 1 1 1 0 -1 -2 -2 -3 -3 -2 -1 -1 -2 -3 -4 -5 -5 -5 -5 -2 -2 -2 -5 -5
-1 -1 -1 -1 -1 -1 -1 -2 -1 -1 -1 -1 -0 -0 0 0 1 1 1 1 1 1 -0 -1 -2 -3 -4 -5 -3 -1 -2 -2 -3 -4 -5 -6 -5 -5 -5 -5 -5 -6 -5
-1 -1 -1 0 2 2 1 1 -1 -2 -2 -2 -2 -2 -1 -1 0 0 -0 -0 1 0 -0 -2 -2 -3 -4 -5 -6 -5 -4 -4 -4 -5 -6 -6 -6 -6 -6 -5 -5 -5 -4
1 2 1 1 1 2 2 1 0 0 -0 -0 -1 -2 -2 -3 -3 -2 -1 -1 -0 -1 -1 -2 -2 -3 -4 -4 -4 -5 -6 -6 -6 -6 -6 -6 -6 -6 -6 -6 -6 -5 -5
0 2 1 0 -1 -0 0 0 0 0 -1 -1 -2 -2 -2 -2 -2 -3 -4 -4 -3 -2 -3 -2 -3 -4 -5 -5 -5 -5 -5 -5 -5 -5 -5 -5 -5 -6 -6 -6 -6 -6 -6
-2 -1 -1 -1 -1 -2 -1 -0 -0 -1 -1 -1 -2 -3 -4 -5 -6 -7 -6 -6 -7 -6 -5 -5 -6 -5 -6 -8 -8 -7 -6 -6 -5 -5 -5 -5 -5 -5 -5 -6 -7 -7 -6
-4 -4 -4 -4 -4 -4 -5 -4 -3 -1 -1 -2 -2 -2 -2 -3 -4 -6 -8 -9 -8 -8 -8 -8 -7 -8 -8 -8 -8 -8 -7 -6 -5 -5 -5 -5 -6 -6 -6 -6 -7 -8 -8

GFSMW_925_temp_084.txt.gz
Temp
28 29 30 30 31 30 27 23 21 20 19 17 16 16 15 15 16 17 16 16 16 15 15 15 14 14 14 15 14 14 14 14 17 18 18 17 17 18 18 17 17 16 15
27 28 29 30 30 28 26 23 21 20 20 18 17 18 17 16 16 16 15 15 15 15 15 15 14 14 14 14 14 14 14 14 17 17 16 14 16 17 18 18 18 17 16
27 28 28 28 28 28 25 24 21 21 20 19 19 18 18 17 17 16 15 15 15 15 15 15 14 14 14 14 14 14 14 14 16 17 17 14 14 15 16 17 17 17 17
27 28 28 28 27 27 25 24 22 21 20 20 19 17 16 17 17 16 16 15 15 15 15 15 14 14 14 14 14 14 14 15 16 17 17 18 18 14 13 16 17 16 17
27 28 28 29 27 26 25 24 22 21 20 20 19 18 17 17 17 17 16 16 15 14 14 14 15 13 13 13 13 13 13 14 15 17 18 18 18 18 15 14 15 16 16
27 27 28 29 28 26 25 24 22 21 20 20 18 18 18 18 17 17 16 15 14 14 14 14 14 13 13 13 13 13 13 14 15 16 17 18 18 18 17 15 15 15 16
21 22 25 29 28 26 24 24 22 21 20 20 20 19 20 19 18 16 15 14 13 13 13 13 13 13 13 13 13 13 14 14 14 16 17 18 18 18 18 17 16 15 17
17 17 18 16 27 25 24 23 22 22 21 20 20 19 18 18 17 17 15 14 13 13 12 12 13 13 13 13 12 12 13 13 14 16 17 17 17 17 17 16 15 14 16
14 15 15 15 27 25 23 22 23 22 21 20 20 19 18 18 17 16 15 15 14 13 13 13 13 13 13 13 13 12 13 13 14 15 16 16 16 16 16 16 15 15 13
11 11 11 12 21 23 20 21 21 21 20 20 19 19 18 18 17 16 15 15 14 13 13 12 13 12 13 13 13 13 13 13 14 15 15 16 15 15 16 16 15 14 14
9 9 9 9 11 17 16 17 17 18 19 19 19 18 17 17 16 16 15 15 14 14 13 13 12 13 12 13 13 13 13 13 13 14 14 15 15 14 13 14 14 14 13
7 7 7 7 7 8 12 15 15 15 16 17 16 17 16 16 15 15 15 15 14 13 13 13 13 12 12 12 12 12 12 12 12 13 13 13 13 12 12 12 13 13 13
6 6 5 5 5 6 6 7 11 14 15 15 15 15 16 15 15 15 15 14 14 13 13 13 13 12 12 12 12 11 12 12 12 11 12 12 12 12 11 11 11 12 12
5 5 4 4 4 4 4 4 6 10 12 12 12 12 12 13 13 14 14 14 13 13 13 12 12 12 12 12 12 12 11 11 11 11 12 12 11 11 11 11 11 12 12
4 4 3 3 2 3 3 3 4 5 7 8 8 8 9 10 10 10 10 11 12 11 11 11 10 9 10 10 11 11 11 12 12 11 12 11 10 10 11 11 11 11 11
4 3 3 2 2 1 2 2 3 3 4 5 5 6 7 8 7 7 8 8 8 7 8 7 6 6 5 6 8 10 9 10 10 9 7 8 10 10 8 8 8 9 9
3 2 1 1 1 0 0 0 1 2 3 4 4 5 5 4 4 4 3 3 3 4 3 3 3 3 3 6 7 8 8 7 6 5 6 5 6 7 7 3 4 4 5
2 1 1 0 -0 -1 -1 -0 -0 0 1 2 3 3 3 3 2 2 1 1 1 0 -0 -0 1 2 3 4 5 5 5 3 2 1 1 1 2 3 4 2 2 0 -0
0 -1 -1 -1 -1 -1 -1 -1 -1 -1 -0 -0 0 2 2 2 2 1 1 -0 -1 -1 -2 -2 -2 -1 -0 1 1 2 1 -1 -2 -2 -3 -2 -2 -1 2 2 -1 -3 -4
-1 -1 -1 -1 -1 -1 -1 -1 -2 -1 -1 -1 -1 -0 0 1 1 1 1 0 -0 -1 -2 -3 -4 -4 -3 -2 -1 -1 -2 -3 -4 -4 -5 -4 -4 -5 -3 -2 -3 -5 -5
-1 -1 -1 -1 -1 -1 -2 -2 -2 -2 -2 -1 -1 -1 -1 -0 -0 0 1 -0 -1 -1 -2 -3 -4 -5 -4 -3 -2 -2 -3 -4 -5 -5 -6 -5 -5 -4 -5 -4 -4 -4 -4
-1 -1 -1 -1 -1 -1 -1 -2 -2 -2 -2 -2 -2 -2 -1 -1 -1 -1 -1 -0 -1 -2 -2 -3 -3 -4 -5 -5 -5 -4 -4 -5 -5 -5 -5 -6 -6 -5 -5 -4 -4 -4 -4
-0 -1 -1 -0 1 0 -0 -1 -2 -2 -2 -2 -3 -3 -3 -3 -3 -3 -2 -2 -2 -2 -3 -3 -4 -5 -5 -4 -5 -5 -5 -5 -5 -5 -5 -6 -6 -6 -6 -6 -6 -5 -5
-1 -1 -0 0 0 1 1 1 0 -1 -1 -3 -3 -5 -6 -6 -5 -5 -5 -5 -4 -4 -4 -4 -5 -6 -6 -5 -5 -5 -5 -5 -5 -5 -5 -5 -5 -5 -6 -7 -6 -6 -6
-3 -3 -3 -3 -3 -4 -4 -2 -0 -1 -1 -2 -3 -4 -6 -7 -7 -7 -7 -7 -7 -6 -6 -7 -6 -7 -7 -7 -7 -6 -5 -5 -5 -5 -5 -5 -5 -6 -6 -7 -7 -7 -7
-4 -4 -5 -5 -5 -5 -5 -5 -4 -2 -2 -2 -3 -3 -4 -5 -7 -8 -8 -8 -8 -8 -8 -8 -8 -8 -8 -8 -7 -7 -6 -5 -5 -6 -6 -6 -6 -7 -7 -7 -8 -9 -9

GFSMW_925_temp_087.txt.gz
Temp
24 26 27 28 28 28 23 21 19 19 20 18 17 17 17 16 16 17 18 18 18 17 16 16 16 15 15 16 15 15 15 14 14 14 15 17 18 18 16 16 15 15 15
24 25 25 26 27 26 23 20 19 19 18 17 17 16 16 16 16 16 17 17 17 16 16 16 15 14 15 14 14 15 14 14 14 14 16 14 15 17 16 16 15 15 15
23 25 24 24 25 24 21 19 19 19 18 18 18 17 16 16 15 15 16 16 16 16 16 15 15 14 14 14 14 14 14 14 13 15 17 14 14 15 16 15 15 16 15
24 23 24 23 22 22 20 19 19 19 18 19 18 16 15 15 15 16 16 15 15 15 15 15 15 14 14 14 14 14 14 14 14 14 17 17 17 15 13 16 16 16 15
21 22 23 23 24 22 20 19 19 19 19 19 18 17 16 16 16 16 16 15 15 15 14 14 14 14 14 14 14 13 13 14 14 15 16 17 17 17 13 12 14 17 17
15 16 16 16 19 22 21 20 19 19 19 19 18 17 17 16 16 16 15 15 15 15 15 14 14 14 14 14 14 13 13 13 14 14 16 17 16 16 15 12 13 15 16
13 13 12 12 13 15 21 19 19 19 19 19 18 17 17 17 17 16 15 15 14 14 15 14 14 14 13 13 13 13 13 13 13 14 15 17 17 18 17 16 14 14 15
11 11 11 10 11 14 20 20 19 18 18 19 18 18 17 17 17 16 16 15 15 13 13 14 13 13 13 13 13 13 13 13 13 14 14 16 16 17 18 17 15 13 13
9 9 10 9 10 18 21 19 19 19 18 19 18 17 18 17 17 17 16 15 14 13 13 13 13 13 13 13 13 13 13 13 13 14 14 15 16 16 17 17 16 15 12
8 8 8 8 8 10 14 16 19 18 18 19 19 18 18 18 17 16 15 15 14 13 13 12 13 13 13 13 13 12 13 12 13 13 14 14 15 16 16 15 14 14 14
7 7 6 6 6 7 8 11 15 17 18 19 18 18 17 18 17 16 15 15 14 13 13 12 12 13 13 13 12 12 12 12 12 13 13 13 14 15 15 14 14 14 13
6 6 5 5 5 5 6 7 10 15 17 17 17 17 17 17 16 16 15 15 14 14 13 13 12 12 12 13 12 12 12 12 13 13 13 13 14 14 15 15 14 13 13
6 5 4 4 3 4 4 5 6 12 14 15 16 15 16 16 15 15 15 14 14 14 13 13 12 12 12 12 12 13 13 13 13 13 13 13 13 13 13 13 12 11 11
5 4 3 3 2 2 3 4 4 6 10 12 12 13 12 13 14 14 13 13 13 12 12 12 12 12 12 11 12 12 12 12 12 12 12 12 12 12 12 11 11 10 10
4 3 3 2 2 2 2 2 3 4 6 8 10 9 10 11 12 12 12 12 12 11 10 10 10 10 11 11 11 11 11 11 11 10 10 10 10 10 10 10 10 10 10
3 2 2 2 1 1 1 1 1 2 4 5 6 6 8 7 8 8 8 9 8 8 8 7 7 7 8 9 10 10 11 10 9 7 6 6 6 6 8 8 8 9 10
2 1 1 1 0 -0 -0 -0 0 1 2 3 4 4 4 4 4 4 3 3 3 4 3 4 4 4 5 6 8 9 8 6 5 4 3 3 4 3 4 4 4 4 5
1 0 0 -1 -1 -1 -1 -0 -0 0 0 1 2 2 2 2 1 1 1 0 -0 0 0 -0 1 2 1 2 4 5 4 3 1 1 2 1 1 3 2 2 2 0 0
0 -1 -1 -1 -1 -1 -1 -1 -1 -1 -0 -0 0 1 1 1 0 -0 -1 -1 -2 -2 -2 -1 -1 -0 -1 -1 -0 1 -0 -2 -3 -3 -2 -1 -0 -0 1 1 -1 -3 -4
-1 -1 -1 -1 -2 -2 -1 -1 -1 -1 -1 -1 -1 -0 -0 -0 -0 -1 -1 -2 -3 -3 -3 -3 -3 -2 -2 -2 -1 -2 -3 -4 -4 -4 -4 -4 -3 -2 -1 -2 -3 -4 -5
-1 -1 -1 -1 -2 -2 -2 -2 -2 -2 -2 -2 -1 -1 -1 -1 -1 -1 -2 -2 -3 -4 -4 -4 -4 -4 -2 -3 -3 -3 -4 -5 -5 -5 -5 -5 -4 -4 -4 -4 -4 -4 -5
-1 -1 -1 -1 -1 -1 -2 -2 -2 -2 -2 -3 -3 -2 -2 -2 -2 -1 -2 -2 -3 -3 -4 -4 -5 -5 -5 -4 -5 -4 -5 -5 -5 -6 -5 -5 -5 -5 -4 -4 -5 -5 -5
-1 -2 -1 -1 -2 -1 -2 -2 -3 -3 -3 -3 -4 -4 -4 -3 -3 -3 -3 -3 -3 -4 -5 -5 -5 -5 -5 -5 -5 -5 -5 -5 -5 -5 -5 -6 -6 -6 -6 -5 -5 -5 -5
-2 -3 -3 -3 -4 -3 -3 -2 -2 -3 -4 -5 -5 -6 -5 -5 -5 -5 -5 -5 -5 -5 -5 -6 -6 -6 -5 -5 -5 -5 -5 -5 -5 -5 -6 -6 -7 -7 -6 -6 -6 -7 -6
-4 -4 -5 -5 -5 -5 -4 -3 -2 -2 -4 -4 -5 -6 -7 -7 -7 -7 -7 -7 -6 -6 -7 -7 -7 -7 -7 -6 -5 -5 -5 -5 -5 -5 -6 -6 -7 -8 -8 -8 -8 -8 -8
-6 -6 -6 -6 -6 -6 -5 -5 -3 -3 -3 -4 -4 -5 -6 -7 -8 -8 -8 -8 -7 -7 -7 -8 -7 -7 -7 -6 -6 -5 -5 -5 -6 -6 -7 -7 -8 -8 -9 -9 -9 -9 -9